| time (UTC) | temp F | wind direction | speed MPH | gust MPH | rain 1hr in | rain 24hr in | rain mn in | humidity % | barometer mb |
| 20260506194205 | 59 | 49 | 3.0 | 7.0 | 0.00 | 0.21 | 0.21 | 46 | 1017.9 |
| 20260506194105 | 59 | 48 | 3.0 | 7.0 | 0.00 | 0.21 | 0.21 | 45 | 1017.9 |
| 20260506193905 | 59 | 43 | 3.0 | 8.0 | 0.00 | 0.21 | 0.21 | 46 | 1018.0 |
| 20260506193704 | 59 | 33 | 3.0 | 9.0 | 0.00 | 0.21 | 0.21 | 45 | 1017.9 |
| 20260506193605 | 59 | 38 | 3.0 | 9.0 | 0.00 | 0.21 | 0.21 | 46 | 1018.0 |
| 20260506193505 | 59 | 42 | 3.0 | 9.0 | 0.00 | 0.21 | 0.21 | 47 | 1018.0 |
| 20260506193305 | 59 | 39 | 3.0 | 10.0 | 0.00 | 0.21 | 0.21 | 46 | 1018.0 |
| 20260506193205 | 59 | 35 | 3.0 | 10.0 | 0.00 | 0.21 | 0.21 | 47 | 1018.0 |
| 20260506193104 | 59 | 33 | 3.0 | 10.0 | 0.00 | 0.21 | 0.21 | 51 | 1018.1 |
| 20260506193004 | 59 | 33 | 3.0 | 10.0 | 0.00 | 0.21 | 0.21 | 47 | 1018.0 |
| 20260506192905 | 59 | 40 | 3.0 | 10.0 | 0.00 | 0.21 | 0.21 | 47 | 1018.1 |
| 20260506192805 | 59 | 48 | 3.0 | 10.0 | 0.00 | 0.21 | 0.21 | 46 | 1018.1 |
| 20260506192704 | 58 | 59 | 3.0 | 10.0 | 0.00 | 0.21 | 0.21 | 49 | 1018.0 |
| 20260506192604 | 58 | 52 | 3.0 | 10.0 | 0.00 | 0.21 | 0.21 | 46 | 1018.0 |
| 20260506192404 | 58 | 48 | 3.0 | 10.0 | 0.00 | 0.21 | 0.21 | 45 | 1018.0 |
| 20260506192306 | 58 | 57 | 3.0 | 8.0 | 0.00 | 0.21 | 0.21 | 45 | 1018.1 |
| 20260506192204 | 58 | 56 | 4.0 | 8.0 | 0.00 | 0.21 | 0.21 | 49 | 1018.1 |
| 20260506192004 | 58 | 35 | 4.0 | 12.0 | 0.00 | 0.21 | 0.21 | 47 | 1018.0 |
| 20260506191904 | 58 | 23 | 4.0 | 12.0 | 0.00 | 0.21 | 0.21 | 49 | 1018.0 |
| 20260506191805 | 58 | 14 | 4.0 | 12.0 | 0.00 | 0.21 | 0.21 | 47 | 1018.0 |
| 20260506191704 | 58 | 7 | 4.0 | 12.0 | 0.00 | 0.21 | 0.21 | 47 | 1018.0 |
| 20260506191604 | 58 | 9 | 4.0 | 12.0 | 0.00 | 0.21 | 0.21 | 49 | 1018.0 |
| 20260506191504 | 58 | 10 | 4.0 | 12.0 | 0.00 | 0.21 | 0.21 | 50 | 1017.9 |
| 20260506191404 | 58 | 4 | 4.0 | 12.0 | 0.00 | 0.21 | 0.21 | 49 | 1017.9 |
| 20260506191304 | 58 | 6 | 4.0 | 12.0 | 0.00 | 0.21 | 0.21 | 49 | 1017.9 |
| 20260506191205 | 58 | 14 | 4.0 | 12.0 | 0.00 | 0.21 | 0.21 | 49 | 1018.0 |
| 20260506191105 | 58 | 17 | 4.0 | 12.0 | 0.00 | 0.21 | 0.21 | 48 | 1018.0 |
| 20260506191005 | 58 | 17 | 4.0 | 11.0 | 0.00 | 0.21 | 0.21 | 48 | 1018.0 |
| 20260506190905 | 58 | 26 | 4.0 | 11.0 | 0.00 | 0.21 | 0.21 | 48 | 1018.0 |
| 20260506190705 | 58 | 43 | 4.0 | 15.0 | 0.00 | 0.21 | 0.21 | 48 | 1018.0 |
| 20260506190605 | 58 | 50 | 4.0 | 15.0 | 0.00 | 0.21 | 0.21 | 50 | 1018.0 |
| 20260506190505 | 58 | 46 | 4.0 | 15.0 | 0.00 | 0.21 | 0.21 | 48 | 1018.0 |
| 20260506190405 | 58 | 50 | 4.0 | 15.0 | 0.00 | 0.21 | 0.21 | 49 | 1017.9 |
| 20260506190305 | 58 | 50 | 4.0 | 15.0 | 0.00 | 0.21 | 0.21 | 51 | 1017.9 |
| 20260506190205 | 58 | 51 | 4.0 | 15.0 | 0.00 | 0.21 | 0.21 | 48 | 1017.9 |
| 20260506190105 | 58 | 57 | 4.0 | 15.0 | 0.00 | 0.21 | 0.21 | 48 | 1017.9 |
| 20260506190005 | 58 | 64 | 4.0 | 15.0 | 0.00 | 0.21 | 0.21 | 48 | 1017.8 |
| 20260506185905 | 58 | 64 | 4.0 | 15.0 | 0.00 | 0.21 | 0.21 | 47 | 1017.8 |
| 20260506185804 | 58 | 70 | 4.0 | 15.0 | 0.00 | 0.21 | 0.21 | 46 | 1017.9 |
| 20260506185705 | 58 | 70 | 4.0 | 11.0 | 0.00 | 0.21 | 0.21 | 46 | 1017.8 |
| 20260506185604 | 58 | 72 | 4.0 | 11.0 | 0.00 | 0.21 | 0.21 | 45 | 1017.8 |
| 20260506185504 | 58 | 80 | 4.0 | 11.0 | 0.00 | 0.21 | 0.21 | 47 | 1017.9 |
| 20260506185205 | 58 | 85 | 4.0 | 11.0 | 0.00 | 0.21 | 0.21 | 44 | 1017.8 |
| 20260506185104 | 57 | 86 | 4.0 | 12.0 | 0.00 | 0.21 | 0.21 | 48 | 1017.9 |
| 20260506185004 | 57 | 87 | 4.0 | 12.0 | 0.00 | 0.21 | 0.21 | 47 | 1017.8 |
| 20260506184905 | 57 | 84 | 3.0 | 12.0 | 0.00 | 0.21 | 0.21 | 48 | 1017.8 |
| 20260506184804 | 57 | 81 | 3.0 | 12.0 | 0.00 | 0.21 | 0.21 | 49 | 1017.8 |
| 20260506184704 | 57 | 78 | 3.0 | 12.0 | 0.00 | 0.21 | 0.21 | 48 | 1017.8 |
| 20260506184505 | 57 | 61 | 3.0 | 12.0 | 0.00 | 0.21 | 0.21 | 48 | 1017.9 |
| 20260506184404 | 57 | 55 | 4.0 | 12.0 | 0.00 | 0.21 | 0.21 | 48 | 1018.0 |
| 20260506184304 | 57 | 51 | 4.0 | 12.0 | 0.00 | 0.21 | 0.21 | 47 | 1017.9 |
| 20260506184204 | 57 | 50 | 4.0 | 12.0 | 0.00 | 0.21 | 0.21 | 49 | 1018.0 |
| 20260506184104 | 57 | 55 | 4.0 | 10.0 | 0.00 | 0.21 | 0.21 | 48 | 1017.9 |
| 20260506184004 | 57 | 60 | 4.0 | 10.0 | 0.00 | 0.21 | 0.21 | 47 | 1017.9 |
| 20260506183905 | 57 | 64 | 5.0 | 14.0 | 0.00 | 0.21 | 0.21 | 49 | 1017.9 |
| 20260506183804 | 57 | 66 | 5.0 | 14.0 | 0.00 | 0.21 | 0.21 | 46 | 1018.0 |
| 20260506183704 | 57 | 62 | 5.0 | 14.0 | 0.00 | 0.21 | 0.21 | 48 | 1018.0 |
| 20260506183604 | 57 | 63 | 5.0 | 14.0 | 0.00 | 0.21 | 0.21 | 47 | 1018.0 |
| 20260506183504 | 57 | 65 | 5.0 | 14.0 | 0.00 | 0.21 | 0.21 | 48 | 1017.9 |
| 20260506183404 | 57 | 63 | 4.0 | 14.0 | 0.00 | 0.21 | 0.21 | 48 | 1018.0 |
| 20260506183204 | 57 | 57 | 4.0 | 14.0 | 0.00 | 0.21 | 0.21 | 45 | 1017.9 |
| 20260506183104 | 57 | 48 | 4.0 | 14.0 | 0.00 | 0.21 | 0.21 | 46 | 1018.0 |
| 20260506183005 | 57 | 48 | 4.0 | 14.0 | 0.00 | 0.21 | 0.21 | 46 | 1018.0 |
| 20260506182904 | 57 | 40 | 3.0 | 11.0 | 0.00 | 0.21 | 0.21 | 47 | 1018.0 |
| 20260506182804 | 57 | 33 | 3.0 | 11.0 | 0.00 | 0.21 | 0.21 | 50 | 1018.0 |
| 20260506182705 | 57 | 36 | 3.0 | 11.0 | 0.00 | 0.21 | 0.21 | 50 | 1018.1 |
| 20260506182605 | 57 | 45 | 4.0 | 11.0 | 0.00 | 0.21 | 0.21 | 50 | 1018.1 |
| 20260506182404 | 57 | 30 | 4.0 | 11.0 | 0.00 | 0.21 | 0.21 | 50 | 1018.1 |
| 20260506182306 | 57 | 24 | 4.0 | 11.0 | 0.00 | 0.21 | 0.21 | 49 | 1018.1 |
| 20260506182205 | 57 | 32 | 4.0 | 11.0 | 0.00 | 0.21 | 0.21 | 50 | 1018.1 |
| 20260506182105 | 57 | 44 | 4.0 | 11.0 | 0.00 | 0.21 | 0.21 | 49 | 1018.1 |
| 20260506182005 | 57 | 38 | 4.0 | 11.0 | 0.00 | 0.21 | 0.21 | 49 | 1018.2 |
| 20260506181905 | 57 | 42 | 4.0 | 11.0 | 0.00 | 0.21 | 0.21 | 50 | 1018.2 |
| 20260506181805 | 57 | 35 | 4.0 | 11.0 | 0.00 | 0.21 | 0.21 | 50 | 1018.2 |
| 20260506181705 | 57 | 42 | 4.0 | 11.0 | 0.00 | 0.21 | 0.21 | 50 | 1018.1 |
| 20260506181604 | 57 | 40 | 5.0 | 11.0 | 0.00 | 0.21 | 0.21 | 49 | 1018.2 |
| 20260506181504 | 57 | 52 | 5.0 | 11.0 | 0.00 | 0.21 | 0.21 | 49 | 1018.2 |
| 20260506181404 | 57 | 59 | 5.0 | 11.0 | 0.00 | 0.21 | 0.21 | 50 | 1018.3 |
| 20260506181204 | 57 | 67 | 5.0 | 14.0 | 0.00 | 0.21 | 0.21 | 50 | 1018.4 |
| 20260506181104 | 56 | 70 | 6.0 | 14.0 | 0.00 | 0.21 | 0.21 | 50 | 1018.3 |
| 20260506181004 | 56 | 74 | 6.0 | 14.0 | 0.00 | 0.21 | 0.21 | 51 | 1018.4 |
| 20260506180904 | 56 | 76 | 5.0 | 14.0 | 0.00 | 0.21 | 0.21 | 50 | 1018.4 |
| 20260506180704 | 57 | 83 | 5.0 | 14.0 | 0.00 | 0.21 | 0.21 | 51 | 1018.4 |
| 20260506180604 | 56 | 79 | 5.0 | 14.0 | 0.00 | 0.21 | 0.21 | 51 | 1018.4 |
| 20260506180504 | 57 | 77 | 4.0 | 14.0 | 0.00 | 0.21 | 0.21 | 53 | 1018.4 |
| 20260506180404 | 57 | 80 | 4.0 | 14.0 | 0.00 | 0.21 | 0.21 | 52 | 1018.4 |
| 20260506180304 | 57 | 84 | 4.0 | 14.0 | 0.00 | 0.21 | 0.21 | 50 | 1018.4 |
| 20260506180104 | 57 | 76 | 3.0 | 10.0 | 0.00 | 0.21 | 0.21 | 51 | 1018.6 |
| 20260506175904 | 57 | 50 | 3.0 | 9.0 | 0.00 | 0.21 | 0.21 | 53 | 1018.5 |
| 20260506175804 | 57 | 46 | 3.0 | 9.0 | 0.00 | 0.21 | 0.21 | 52 | 1018.5 |
| 20260506175704 | 57 | 48 | 3.0 | 9.0 | 0.00 | 0.21 | 0.21 | 52 | 1018.5 |
| 20260506175604 | 57 | 59 | 3.0 | 9.0 | 0.00 | 0.21 | 0.21 | 52 | 1018.5 |
| 20260506175504 | 57 | 44 | 3.0 | 8.0 | 0.00 | 0.21 | 0.21 | 52 | 1018.5 |
| 20260506175404 | 57 | 32 | 3.0 | 8.0 | 0.00 | 0.21 | 0.21 | 53 | 1018.5 |
| 20260506175306 | 57 | 28 | 3.0 | 8.0 | 0.00 | 0.21 | 0.21 | 52 | 1018.5 |
| 20260506175204 | 57 | 31 | 4.0 | 10.0 | 0.00 | 0.21 | 0.21 | 51 | 1018.5 |
| 20260506175104 | 57 | 34 | 4.0 | 10.0 | 0.00 | 0.21 | 0.21 | 52 | 1018.5 |
| 20260506175005 | 57 | 34 | 4.0 | 11.0 | 0.00 | 0.21 | 0.21 | 53 | 1018.5 |
| 20260506174905 | 57 | 31 | 4.0 | 11.0 | 0.00 | 0.21 | 0.21 | 54 | 1018.5 |
| 20260506174804 | 57 | 30 | 4.0 | 11.0 | 0.00 | 0.21 | 0.21 | 55 | 1018.5 |
| 20260506174605 | 56 | 35 | 4.0 | 11.0 | 0.00 | 0.21 | 0.21 | 53 | 1018.5 |
| 20260506174504 | 56 | 38 | 4.0 | 11.0 | 0.00 | 0.21 | 0.21 | 51 | 1018.5 |
| 20260506174304 | 56 | 51 | 3.0 | 11.0 | 0.00 | 0.21 | 0.21 | 52 | 1018.6 |
| 20260506174204 | 57 | 49 | 3.0 | 11.0 | 0.00 | 0.21 | 0.21 | 53 | 1018.5 |
| 20260506174104 | 56 | 41 | 3.0 | 13.0 | 0.00 | 0.21 | 0.21 | 54 | 1018.5 |
| 20260506174004 | 56 | 42 | 4.0 | 13.0 | 0.00 | 0.21 | 0.21 | 57 | 1018.5 |
| 20260506173904 | 56 | 41 | 4.0 | 13.0 | 0.00 | 0.21 | 0.21 | 56 | 1018.5 |
| 20260506173804 | 56 | 34 | 4.0 | 13.0 | 0.00 | 0.21 | 0.21 | 55 | 1018.6 |
| 20260506173605 | 56 | 29 | 4.0 | 13.0 | 0.00 | 0.21 | 0.21 | 57 | 1018.6 |
| 20260506173504 | 56 | 23 | 4.0 | 13.0 | 0.00 | 0.21 | 0.21 | 58 | 1018.6 |
| 20260506173404 | 55 | 14 | 4.0 | 13.0 | 0.00 | 0.21 | 0.21 | 56 | 1018.6 |
| 20260506173304 | 55 | 9 | 4.0 | 13.0 | 0.00 | 0.21 | 0.21 | 56 | 1018.7 |
| 20260506173204 | 55 | 6 | 4.0 | 13.0 | 0.00 | 0.21 | 0.21 | 56 | 1018.7 |
| 20260506173104 | 55 | 5 | 4.0 | 13.0 | 0.00 | 0.21 | 0.21 | 56 | 1018.6 |
| 20260506173004 | 55 | 9 | 4.0 | 11.0 | 0.00 | 0.21 | 0.21 | 55 | 1018.7 |
| 20260506172904 | 55 | 12 | 4.0 | 11.0 | 0.00 | 0.21 | 0.21 | 56 | 1018.6 |
| 20260506172804 | 55 | 22 | 4.0 | 11.0 | 0.00 | 0.21 | 0.21 | 58 | 1018.7 |
| 20260506172704 | 55 | 21 | 4.0 | 11.0 | 0.00 | 0.21 | 0.21 | 57 | 1018.7 |
| 20260506172605 | 55 | 20 | 4.0 | 11.0 | 0.00 | 0.21 | 0.21 | 56 | 1018.7 |
| 20260506172405 | 55 | 36 | 3.0 | 11.0 | 0.00 | 0.21 | 0.21 | 59 | 1018.7 |
| 20260506172307 | 55 | 39 | 3.0 | 11.0 | 0.00 | 0.21 | 0.21 | 60 | 1018.8 |
| 20260506172105 | 55 | 53 | 3.0 | 7.0 | 0.00 | 0.21 | 0.21 | 59 | 1018.7 |
| 20260506172004 | 55 | 56 | 3.0 | 7.0 | 0.00 | 0.21 | 0.21 | 59 | 1018.7 |
| 20260506171805 | 55 | 52 | 3.0 | 7.0 | 0.00 | 0.21 | 0.21 | 61 | 1018.8 |
| 20260506171604 | 54 | 45 | 3.0 | 8.0 | 0.00 | 0.21 | 0.21 | 63 | 1018.8 |
| 20260506171504 | 54 | 57 | 3.0 | 9.0 | 0.00 | 0.21 | 0.21 | 62 | 1018.8 |
| 20260506171305 | 54 | 54 | 3.0 | 9.0 | 0.00 | 0.21 | 0.21 | 63 | 1018.9 |
| 20260506171205 | 54 | 55 | 3.0 | 9.0 | 0.00 | 0.21 | 0.21 | 63 | 1018.9 |
| 20260506171104 | 54 | 49 | 3.0 | 9.0 | 0.00 | 0.21 | 0.21 | 63 | 1018.9 |
| 20260506171005 | 54 | 47 | 4.0 | 9.0 | 0.00 | 0.21 | 0.21 | 63 | 1018.9 |
| 20260506170805 | 54 | 61 | 4.0 | 11.0 | 0.00 | 0.21 | 0.21 | 63 | 1018.7 |
| 20260506170604 | 54 | 68 | 3.0 | 11.0 | 0.00 | 0.21 | 0.21 | 64 | 1018.7 |
| 20260506170505 | 54 | 58 | 4.0 | 11.0 | 0.00 | 0.21 | 0.21 | 66 | 1018.7 |
| 20260506170304 | 53 | 57 | 3.0 | 11.0 | 0.00 | 0.21 | 0.21 | 66 | 1018.8 |
| 20260506170205 | 53 | 60 | 3.0 | 11.0 | 0.00 | 0.21 | 0.21 | 66 | 1018.7 |
| 20260506170004 | 54 | 57 | 3.0 | 11.0 | 0.00 | 0.21 | 0.21 | 65 | 1018.7 |
| 20260506165904 | 54 | 39 | 3.0 | 11.0 | 0.00 | 0.21 | 0.21 | 68 | 1018.7 |
| 20260506165804 | 54 | 10 | 3.0 | 9.0 | 0.00 | 0.21 | 0.21 | 68 | 1018.7 |
| 20260506165604 | 54 | 349 | 3.0 | 9.0 | 0.00 | 0.21 | 0.21 | 68 | 1018.7 |
| 20260506165504 | 53 | 356 | 3.0 | 9.0 | 0.00 | 0.21 | 0.21 | 69 | 1018.7 |
| 20260506165405 | 53 | 1 | 4.0 | 9.0 | 0.00 | 0.21 | 0.21 | 69 | 1018.7 |
| 20260506165306 | 53 | 8 | 4.0 | 9.0 | 0.00 | 0.21 | 0.21 | 68 | 1018.7 |
| 20260506165205 | 53 | 9 | 4.0 | 9.0 | 0.00 | 0.21 | 0.21 | 69 | 1018.7 |
| 20260506165105 | 53 | 2 | 4.0 | 9.0 | 0.00 | 0.21 | 0.21 | 68 | 1018.7 |
| 20260506164905 | 53 | 8 | 4.0 | 10.0 | 0.00 | 0.21 | 0.21 | 67 | 1018.7 |
| 20260506164805 | 53 | 14 | 4.0 | 10.0 | 0.00 | 0.21 | 0.21 | 67 | 1018.8 |
| 20260506164705 | 53 | 20 | 4.0 | 10.0 | 0.00 | 0.21 | 0.21 | 67 | 1018.8 |
| 20260506164604 | 53 | 30 | 4.0 | 10.0 | 0.00 | 0.22 | 0.21 | 67 | 1018.8 |
| 20260506164504 | 53 | 28 | 4.0 | 10.0 | 0.00 | 0.22 | 0.21 | 67 | 1018.8 |
| 20260506164305 | 53 | 31 | 4.0 | 10.0 | 0.00 | 0.22 | 0.21 | 68 | 1018.8 |
| 20260506164205 | 52 | 32 | 4.0 | 10.0 | 0.00 | 0.22 | 0.21 | 66 | 1018.8 |
| 20260506164105 | 52 | 34 | 4.0 | 10.0 | 0.00 | 0.22 | 0.21 | 66 | 1018.8 |
| 20260506164005 | 53 | 30 | 4.0 | 10.0 | 0.00 | 0.22 | 0.21 | 66 | 1018.8 |
| 20260506163905 | 53 | 30 | 4.0 | 12.0 | 0.00 | 0.22 | 0.21 | 65 | 1018.8 |
| 20260506163805 | 53 | 25 | 4.0 | 12.0 | 0.00 | 0.22 | 0.21 | 65 | 1018.8 |
| 20260506163605 | 52 | 16 | 4.0 | 12.0 | 0.00 | 0.22 | 0.21 | 67 | 1018.8 |
| 20260506163505 | 52 | 15 | 4.0 | 12.0 | 0.00 | 0.22 | 0.21 | 68 | 1018.8 |
| 20260506163405 | 52 | 9 | 4.0 | 12.0 | 0.00 | 0.22 | 0.21 | 67 | 1018.7 |
| 20260506163304 | 52 | 12 | 4.0 | 12.0 | 0.00 | 0.22 | 0.21 | 68 | 1018.7 |
| 20260506163205 | 52 | 7 | 4.0 | 12.0 | 0.00 | 0.22 | 0.21 | 68 | 1018.7 |
| 20260506163104 | 52 | 5 | 4.0 | 12.0 | 0.00 | 0.22 | 0.21 | 68 | 1018.7 |
| 20260506163005 | 53 | 7 | 4.0 | 12.0 | 0.00 | 0.22 | 0.21 | 70 | 1018.6 |
| 20260506162905 | 53 | 8 | 3.0 | 10.0 | 0.00 | 0.22 | 0.21 | 72 | 1018.6 |
| 20260506162705 | 52 | 13 | 3.0 | 10.0 | 0.00 | 0.22 | 0.21 | 72 | 1018.5 |
| 20260506162604 | 52 | 23 | 3.0 | 10.0 | 0.00 | 0.22 | 0.21 | 72 | 1018.5 |
| 20260506162504 | 52 | 30 | 3.0 | 10.0 | 0.00 | 0.22 | 0.21 | 72 | 1018.5 |
| 20260506162307 | 52 | 28 | 4.0 | 10.0 | 0.00 | 0.22 | 0.21 | 71 | 1018.4 |
| 20260506162204 | 52 | 19 | 4.0 | 13.0 | 0.00 | 0.22 | 0.21 | 71 | 1018.3 |
| 20260506162104 | 52 | 7 | 4.0 | 13.0 | 0.00 | 0.22 | 0.21 | 73 | 1018.2 |
| 20260506162004 | 52 | 1 | 4.0 | 13.0 | 0.00 | 0.22 | 0.21 | 74 | 1018.2 |
| 20260506161904 | 51 | 4 | 4.0 | 13.0 | 0.00 | 0.22 | 0.21 | 74 | 1018.3 |
| 20260506161705 | 51 | 357 | 5.0 | 13.0 | 0.00 | 0.22 | 0.21 | 74 | 1018.5 |
| 20260506161604 | 51 | 352 | 5.0 | 13.0 | 0.00 | 0.22 | 0.21 | 74 | 1018.5 |
| 20260506161505 | 50 | 346 | 5.0 | 13.0 | 0.00 | 0.22 | 0.21 | 75 | 1018.6 |
| 20260506161404 | 50 | 344 | 5.0 | 13.0 | 0.00 | 0.22 | 0.21 | 74 | 1018.5 |
| 20260506161304 | 50 | 345 | 5.0 | 13.0 | 0.00 | 0.22 | 0.21 | 74 | 1018.5 |
| 20260506161104 | 50 | 354 | 5.0 | 9.0 | 0.00 | 0.22 | 0.21 | 74 | 1018.5 |
| 20260506161004 | 50 | 355 | 4.0 | 9.0 | 0.00 | 0.22 | 0.21 | 73 | 1018.5 |
| 20260506160905 | 50 | 354 | 4.0 | 9.0 | 0.00 | 0.22 | 0.21 | 74 | 1018.6 |
| 20260506160804 | 50 | 353 | 4.0 | 9.0 | 0.00 | 0.22 | 0.21 | 74 | 1018.6 |
| 20260506160704 | 50 | 355 | 4.0 | 9.0 | 0.00 | 0.22 | 0.21 | 74 | 1018.7 |
| 20260506160604 | 50 | 357 | 4.0 | 9.0 | 0.00 | 0.22 | 0.21 | 74 | 1018.7 |
| 20260506160504 | 50 | 359 | 4.0 | 9.0 | 0.00 | 0.22 | 0.21 | 74 | 1018.7 |
| 20260506160404 | 50 | 359 | 4.0 | 9.0 | 0.00 | 0.22 | 0.21 | 74 | 1018.7 |
| 20260506160304 | 50 | 3 | 4.0 | 9.0 | 0.00 | 0.22 | 0.21 | 74 | 1018.7 |
| 20260506160204 | 50 | 3 | 4.0 | 9.0 | 0.00 | 0.22 | 0.21 | 74 | 1018.7 |
| 20260506160104 | 49 | 6 | 4.0 | 9.0 | 0.00 | 0.22 | 0.21 | 74 | 1018.7 |
| 20260506160004 | 49 | 359 | 4.0 | 10.0 | 0.00 | 0.22 | 0.21 | 74 | 1018.7 |
| 20260506155904 | 49 | 355 | 4.0 | 10.0 | 0.00 | 0.22 | 0.21 | 74 | 1018.7 |
| 20260506155804 | 49 | 350 | 4.0 | 10.0 | 0.00 | 0.22 | 0.21 | 74 | 1018.7 |
| 20260506155704 | 49 | 352 | 4.0 | 10.0 | 0.00 | 0.22 | 0.21 | 74 | 1018.8 |
| 20260506155604 | 49 | 350 | 3.0 | 10.0 | 0.00 | 0.22 | 0.21 | 74 | 1018.8 |
| 20260506155504 | 49 | 354 | 3.0 | 10.0 | 0.00 | 0.22 | 0.21 | 74 | 1018.8 |
| 20260506155404 | 49 | 357 | 3.0 | 10.0 | 0.00 | 0.22 | 0.21 | 74 | 1018.8 |
| 20260506155306 | 49 | 357 | 3.0 | 10.0 | 0.00 | 0.22 | 0.21 | 74 | 1018.8 |
| 20260506155204 | 49 | 1 | 3.0 | 10.0 | 0.00 | 0.22 | 0.21 | 74 | 1018.9 |
| 20260506155104 | 49 | 1 | 3.0 | 10.0 | 0.00 | 0.22 | 0.21 | 74 | 1018.8 |
| 20260506155004 | 49 | 16 | 3.0 | 8.0 | 0.00 | 0.22 | 0.21 | 74 | 1018.8 |
| 20260506154904 | 49 | 24 | 3.0 | 8.0 | 0.00 | 0.22 | 0.21 | 76 | 1018.8 |
| 20260506154704 | 49 | 25 | 3.0 | 8.0 | 0.00 | 0.22 | 0.21 | 75 | 1018.9 |
| 20260506154605 | 49 | 22 | 3.0 | 8.0 | 0.00 | 0.22 | 0.21 | 75 | 1018.9 |
| 20260506154504 | 49 | 19 | 3.0 | 8.0 | 0.00 | 0.22 | 0.21 | 75 | 1018.9 |
| 20260506154404 | 49 | 15 | 3.0 | 8.0 | 0.00 | 0.22 | 0.21 | 75 | 1018.9 |
| 20260506154304 | 49 | 7 | 3.0 | 8.0 | 0.00 | 0.22 | 0.21 | 76 | 1019.0 |
| 20260506154204 | 49 | 354 | 3.0 | 8.0 | 0.00 | 0.22 | 0.21 | 75 | 1019.0 |
| 20260506154104 | 49 | 349 | 3.0 | 8.0 | 0.00 | 0.22 | 0.21 | 76 | 1018.9 |
| 20260506154004 | 49 | 343 | 3.0 | 8.0 | 0.00 | 0.22 | 0.21 | 76 | 1019.0 |
| 20260506153904 | 49 | 338 | 3.0 | 8.0 | 0.00 | 0.22 | 0.21 | 76 | 1018.9 |
| 20260506153604 | 48 | 328 | 3.0 | 8.0 | 0.00 | 0.22 | 0.21 | 77 | 1018.9 |
| 20260506153404 | 48 | 330 | 3.0 | 8.0 | 0.00 | 0.22 | 0.21 | 76 | 1018.9 |
| 20260506153304 | 48 | 333 | 3.0 | 8.0 | 0.00 | 0.22 | 0.21 | 76 | 1018.8 |
| 20260506152804 | 48 | 3 | 2.0 | 8.0 | 0.00 | 0.22 | 0.21 | 77 | 1018.8 |
| 20260506152704 | 48 | 27 | 2.0 | 6.0 | 0.00 | 0.22 | 0.21 | 77 | 1018.7 |
| 20260506152504 | 48 | 28 | 3.0 | 7.0 | 0.00 | 0.22 | 0.21 | 77 | 1018.7 |
| 20260506152404 | 48 | 26 | 3.0 | 7.0 | 0.00 | 0.22 | 0.21 | 77 | 1018.7 |
| 20260506152306 | 48 | 23 | 3.0 | 7.0 | 0.00 | 0.22 | 0.21 | 77 | 1018.6 |
| 20260506152204 | 48 | 18 | 3.0 | 7.0 | 0.00 | 0.22 | 0.21 | 77 | 1018.5 |
| 20260506152104 | 48 | 20 | 3.0 | 7.0 | 0.00 | 0.22 | 0.21 | 77 | 1018.5 |
| 20260506152005 | 48 | 23 | 3.0 | 7.0 | 0.00 | 0.22 | 0.21 | 77 | 1018.5 |
| 20260506151905 | 48 | 25 | 3.0 | 7.0 | 0.00 | 0.22 | 0.21 | 76 | 1018.5 |
| 20260506151805 | 48 | 25 | 3.0 | 7.0 | 0.00 | 0.22 | 0.21 | 76 | 1018.5 |
| 20260506151704 | 48 | 24 | 2.0 | 7.0 | 0.00 | 0.22 | 0.21 | 76 | 1018.5 |
| 20260506151504 | 48 | 30 | 2.0 | 6.0 | 0.00 | 0.22 | 0.21 | 77 | 1018.5 |
| 20260506151405 | 48 | 29 | 2.0 | 6.0 | 0.00 | 0.22 | 0.21 | 77 | 1018.5 |
| 20260506151205 | 48 | 40 | 2.0 | 5.0 | 0.00 | 0.22 | 0.21 | 77 | 1018.5 |
| 20260506151105 | 48 | 40 | 2.0 | 5.0 | 0.00 | 0.22 | 0.21 | 77 | 1018.5 |
| 20260506151005 | 48 | 41 | 2.0 | 5.0 | 0.00 | 0.22 | 0.21 | 77 | 1018.5 |
| 20260506150904 | 48 | 34 | 2.0 | 5.0 | 0.00 | 0.22 | 0.21 | 78 | 1018.6 |
| 20260506150805 | 48 | 31 | 2.0 | 6.0 | 0.00 | 0.22 | 0.21 | 77 | 1018.6 |
| 20260506150704 | 48 | 29 | 2.0 | 6.0 | 0.00 | 0.22 | 0.21 | 77 | 1018.6 |
| 20260506150605 | 48 | 30 | 2.0 | 6.0 | 0.00 | 0.22 | 0.21 | 77 | 1018.6 |
| 20260506150505 | 48 | 27 | 2.0 | 6.0 | 0.00 | 0.22 | 0.21 | 77 | 1018.7 |
| 20260506150404 | 48 | 28 | 2.0 | 6.0 | 0.00 | 0.22 | 0.21 | 77 | 1018.6 |
| 20260506150305 | 48 | 29 | 2.0 | 6.0 | 0.00 | 0.22 | 0.21 | 78 | 1018.7 |
| 20260506150204 | 48 | 31 | 2.0 | 6.0 | 0.00 | 0.22 | 0.21 | 79 | 1018.7 |
| 20260506150104 | 48 | 28 | 2.0 | 6.0 | 0.00 | 0.22 | 0.21 | 78 | 1018.7 |
| 20260506150005 | 48 | 23 | 2.0 | 6.0 | 0.00 | 0.22 | 0.21 | 78 | 1018.7 |
| 20260506145904 | 48 | 28 | 2.0 | 6.0 | 0.00 | 0.22 | 0.21 | 79 | 1018.7 |
| 20260506145704 | 48 | 25 | 1.0 | 4.0 | 0.00 | 0.22 | 0.21 | 80 | 1018.7 |
| 20260506145605 | 48 | 19 | 1.0 | 4.0 | 0.00 | 0.22 | 0.21 | 80 | 1018.6 |
| 20260506145505 | 48 | 20 | 1.0 | 4.0 | 0.00 | 0.22 | 0.21 | 80 | 1018.7 |
| 20260506145404 | 48 | 20 | 1.0 | 4.0 | 0.00 | 0.22 | 0.21 | 80 | 1018.7 |
| 20260506145306 | 48 | 19 | 2.0 | 4.0 | 0.00 | 0.22 | 0.21 | 81 | 1018.7 |
| 20260506145204 | 48 | 15 | 2.0 | 6.0 | 0.00 | 0.22 | 0.21 | 81 | 1018.7 |
| 20260506145104 | 48 | 17 | 2.0 | 6.0 | 0.00 | 0.22 | 0.21 | 81 | 1018.8 |
| 20260506145004 | 48 | 20 | 2.0 | 6.0 | 0.00 | 0.22 | 0.21 | 81 | 1018.8 |
| 20260506144804 | 48 | 14 | 2.0 | 6.0 | 0.00 | 0.22 | 0.21 | 81 | 1018.7 |
| 20260506144704 | 48 | 15 | 2.0 | 6.0 | 0.00 | 0.22 | 0.21 | 81 | 1018.7 |
| 20260506144604 | 48 | 16 | 2.0 | 6.0 | 0.00 | 0.22 | 0.21 | 81 | 1018.7 |
| 20260506144504 | 48 | 11 | 2.0 | 6.0 | 0.00 | 0.22 | 0.21 | 81 | 1018.6 |
| 20260506144404 | 48 | 13 | 3.0 | 6.0 | 0.00 | 0.22 | 0.21 | 81 | 1018.6 |
| 20260506144304 | 48 | 13 | 2.0 | 6.0 | 0.00 | 0.22 | 0.21 | 81 | 1018.6 |
| 20260506144204 | 48 | 15 | 2.0 | 5.0 | 0.00 | 0.22 | 0.21 | 82 | 1018.5 |
| 20260506144104 | 48 | 11 | 2.0 | 5.0 | 0.00 | 0.22 | 0.21 | 82 | 1018.5 |
| 20260506143904 | 48 | 355 | 2.0 | 5.0 | 0.00 | 0.22 | 0.21 | 82 | 1018.4 |
| 20260506143804 | 48 | 354 | 2.0 | 5.0 | 0.00 | 0.22 | 0.21 | 82 | 1018.3 |
| 20260506143704 | 48 | 352 | 2.0 | 5.0 | 0.00 | 0.22 | 0.21 | 82 | 1018.3 |
| 20260506143604 | 48 | 355 | 2.0 | 5.0 | 0.00 | 0.22 | 0.21 | 82 | 1018.3 |
| 20260506143404 | 48 | 3 | 2.0 | 5.0 | 0.00 | 0.22 | 0.21 | 83 | 1018.2 |
| 20260506143304 | 48 | 8 | 2.0 | 5.0 | 0.00 | 0.22 | 0.21 | 84 | 1018.2 |
| 20260506143204 | 47 | 11 | 2.0 | 5.0 | 0.00 | 0.22 | 0.21 | 83 | 1018.2 |
| 20260506143104 | 47 | 14 | 2.0 | 5.0 | 0.00 | 0.22 | 0.21 | 84 | 1018.1 |
| 20260506142804 | 47 | 46 | 2.0 | 5.0 | 0.00 | 0.22 | 0.21 | 84 | 1017.9 |
| 20260506142704 | 47 | 53 | 2.0 | 5.0 | 0.00 | 0.22 | 0.21 | 84 | 1017.8 |
| 20260506142604 | 47 | 41 | 1.0 | 5.0 | 0.00 | 0.22 | 0.21 | 84 | 1017.7 |
| 20260506142504 | 47 | 43 | 1.0 | 5.0 | 0.00 | 0.22 | 0.21 | 84 | 1017.7 |
| 20260506142404 | 47 | 41 | 1.0 | 5.0 | 0.00 | 0.22 | 0.21 | 85 | 1017.7 |
| 20260506142306 | 47 | 38 | 1.0 | 5.0 | 0.00 | 0.22 | 0.21 | 86 | 1017.7 |
| 20260506142204 | 47 | 36 | 1.0 | 5.0 | 0.00 | 0.22 | 0.21 | 86 | 1017.8 |
| 20260506142104 | 47 | 35 | 1.0 | 5.0 | 0.00 | 0.22 | 0.21 | 85 | 1017.9 |
| 20260506142004 | 47 | 20 | 1.0 | 5.0 | 0.00 | 0.22 | 0.21 | 86 | 1018.0 |
| 20260506141904 | 47 | 14 | 1.0 | 5.0 | 0.00 | 0.22 | 0.21 | 86 | 1018.2 |
| 20260506141804 | 47 | 15 | 1.0 | 4.0 | 0.00 | 0.22 | 0.21 | 86 | 1018.3 |
| 20260506141704 | 47 | 20 | 1.0 | 4.0 | 0.00 | 0.22 | 0.21 | 87 | 1018.4 |
| 20260506141605 | 47 | 37 | 1.0 | 5.0 | 0.00 | 0.22 | 0.21 | 87 | 1018.5 |
| 20260506141505 | 47 | 33 | 1.0 | 5.0 | 0.00 | 0.22 | 0.21 | 87 | 1018.6 |
| 20260506141405 | 47 | 25 | 2.0 | 5.0 | 0.00 | 0.22 | 0.21 | 87 | 1018.6 |
| 20260506141204 | 47 | 7 | 2.0 | 5.0 | 0.00 | 0.22 | 0.21 | 87 | 1018.6 |
| 20260506141104 | 47 | 353 | 2.0 | 6.0 | 0.00 | 0.22 | 0.21 | 87 | 1018.6 |
| 20260506141005 | 47 | 348 | 2.0 | 6.0 | 0.00 | 0.22 | 0.21 | 87 | 1018.6 |
| 20260506140904 | 47 | 346 | 3.0 | 6.0 | 0.00 | 0.22 | 0.21 | 87 | 1018.7 |
| 20260506140804 | 47 | 340 | 3.0 | 6.0 | 0.00 | 0.22 | 0.21 | 87 | 1018.6 |
| 20260506140604 | 47 | 329 | 2.0 | 6.0 | 0.00 | 0.22 | 0.21 | 87 | 1018.5 |
| 20260506140504 | 47 | 329 | 2.0 | 6.0 | 0.00 | 0.22 | 0.21 | 87 | 1018.5 |
| 20260506140404 | 47 | 327 | 2.0 | 6.0 | 0.00 | 0.22 | 0.21 | 87 | 1018.5 |
| 20260506140304 | 47 | 327 | 2.0 | 6.0 | 0.00 | 0.22 | 0.21 | 87 | 1018.5 |
| 20260506140204 | 47 | 326 | 2.0 | 6.0 | 0.00 | 0.22 | 0.21 | 87 | 1018.6 |
| 20260506140105 | 47 | 329 | 2.0 | 5.0 | 0.00 | 0.22 | 0.21 | 87 | 1018.5 |
| 20260506135904 | 47 | 332 | 2.0 | 5.0 | 0.00 | 0.22 | 0.21 | 87 | 1018.6 |
| 20260506135704 | 47 | 348 | 2.0 | 5.0 | 0.00 | 0.22 | 0.21 | 87 | 1018.5 |
| 20260506135604 | 47 | 352 | 1.0 | 5.0 | 0.00 | 0.22 | 0.21 | 87 | 1018.5 |
| 20260506135504 | 47 | 354 | 1.0 | 5.0 | 0.00 | 0.22 | 0.21 | 87 | 1018.5 |
| 20260506135404 | 47 | 359 | 1.0 | 5.0 | 0.00 | 0.22 | 0.21 | 87 | 1018.5 |
| 20260506135306 | 47 | 3 | 1.0 | 5.0 | 0.00 | 0.22 | 0.21 | 87 | 1018.5 |
| 20260506135205 | 47 | 7 | 1.0 | 5.0 | 0.00 | 0.22 | 0.21 | 87 | 1018.5 |
| 20260506135104 | 47 | 359 | 2.0 | 5.0 | 0.00 | 0.22 | 0.21 | 87 | 1018.5 |
| 20260506135004 | 47 | 354 | 2.0 | 5.0 | 0.00 | 0.22 | 0.21 | 87 | 1018.5 |
| 20260506134904 | 47 | 355 | 2.0 | 5.0 | 0.00 | 0.22 | 0.21 | 87 | 1018.4 |
| 20260506134804 | 47 | 358 | 2.0 | 5.0 | 0.00 | 0.22 | 0.21 | 87 | 1018.4 |
| 20260506134705 | 47 | 353 | 2.0 | 5.0 | 0.00 | 0.22 | 0.21 | 87 | 1018.5 |
| 20260506134605 | 47 | 352 | 2.0 | 5.0 | 0.00 | 0.22 | 0.21 | 87 | 1018.4 |
| 20260506134505 | 47 | 355 | 2.0 | 5.0 | 0.00 | 0.22 | 0.21 | 87 | 1018.5 |
| 20260506134404 | 46 | 354 | 2.0 | 5.0 | 0.00 | 0.22 | 0.21 | 87 | 1018.5 |
| 20260506134305 | 46 | 358 | 2.0 | 5.0 | 0.00 | 0.22 | 0.21 | 87 | 1018.5 |
| 20260506134005 | 46 | 23 | 1.0 | 5.0 | 0.00 | 0.22 | 0.21 | 87 | 1018.3 |
| 20260506133905 | 46 | 38 | 1.0 | 4.0 | 0.00 | 0.22 | 0.21 | 88 | 1018.2 |
| 20260506133805 | 46 | 44 | 1.0 | 4.0 | 0.00 | 0.22 | 0.21 | 88 | 1018.1 |
| 20260506133705 | 46 | 49 | 1.0 | 4.0 | 0.00 | 0.22 | 0.21 | 88 | 1018.1 |
| 20260506133604 | 46 | 49 | 1.0 | 4.0 | 0.00 | 0.22 | 0.21 | 88 | 1018.1 |
| 20260506133505 | 46 | 52 | 1.0 | 4.0 | 0.00 | 0.22 | 0.21 | 88 | 1018.2 |
| 20260506133305 | 46 | 67 | 0.0 | 2.0 | 0.00 | 0.22 | 0.21 | 89 | 1018.2 |
| 20260506133204 | 46 | 68 | 0.0 | 2.0 | 0.00 | 0.22 | 0.21 | 89 | 1018.3 |
| 20260506133104 | 46 | 73 | 0.0 | 2.0 | 0.00 | 0.22 | 0.21 | 89 | 1018.3 |
| 20260506133005 | 46 | 74 | 0.0 | 2.0 | 0.00 | 0.22 | 0.21 | 89 | 1018.3 |
| 20260506132905 | 46 | 76 | 0.0 | 2.0 | 0.00 | 0.22 | 0.21 | 89 | 1018.4 |
| 20260506132804 | 46 | 78 | 0.0 | 2.0 | 0.00 | 0.22 | 0.21 | 89 | 1018.3 |
| 20260506132604 | 46 | 78 | 0.0 | 2.0 | 0.00 | 0.22 | 0.21 | 89 | 1018.3 |
| 20260506132405 | 46 | 61 | 0.0 | 1.0 | 0.00 | 0.22 | 0.21 | 90 | 1018.2 |
| 20260506132307 | 46 | 58 | 0.0 | 1.0 | 0.00 | 0.22 | 0.21 | 89 | 1018.2 |
| 20260506132204 | 46 | 58 | 0.0 | 1.0 | 0.00 | 0.22 | 0.21 | 89 | 1018.2 |
| 20260506132005 | 46 | 52 | 0.0 | 1.0 | 0.00 | 0.22 | 0.21 | 89 | 1018.3 |
| 20260506131804 | 46 | 53 | 0.0 | 2.0 | 0.00 | 0.22 | 0.21 | 89 | 1018.5 |
| 20260506131704 | 46 | 53 | 0.0 | 2.0 | 0.00 | 0.22 | 0.21 | 89 | 1018.5 |
| 20260506131605 | 46 | 55 | 0.0 | 2.0 | 0.00 | 0.22 | 0.21 | 89 | 1018.6 |
| 20260506131504 | 46 | 60 | 0.0 | 2.0 | 0.00 | 0.22 | 0.21 | 89 | 1018.6 |
| 20260506131405 | 46 | 62 | 0.0 | 2.0 | 0.00 | 0.22 | 0.21 | 89 | 1018.6 |
| 20260506131304 | 46 | 64 | 0.0 | 2.0 | 0.00 | 0.22 | 0.21 | 90 | 1018.6 |
| 20260506131105 | 46 | 65 | 0.0 | 2.0 | 0.00 | 0.22 | 0.21 | 90 | 1018.5 |
| 20260506131005 | 46 | 65 | 0.0 | 2.0 | 0.00 | 0.22 | 0.21 | 90 | 1018.5 |
| 20260506130905 | 46 | 73 | 0.0 | 2.0 | 0.00 | 0.22 | 0.21 | 90 | 1018.4 |
| 20260506130805 | 46 | 74 | 0.0 | 2.0 | 0.00 | 0.22 | 0.21 | 90 | 1018.4 |
| 20260506130705 | 46 | 68 | 0.0 | 2.0 | 0.00 | 0.22 | 0.21 | 90 | 1018.4 |
| 20260506130505 | 46 | 42 | 0.0 | 1.0 | 0.00 | 0.22 | 0.21 | 90 | 1018.3 |
| 20260506130405 | 46 | 42 | 0.0 | 1.0 | 0.00 | 0.22 | 0.21 | 90 | 1018.3 |
| 20260506130305 | 45 | 42 | 0.0 | 1.0 | 0.00 | 0.22 | 0.21 | 90 | 1018.3 |
| 20260506130205 | 46 | 42 | 0.0 | 1.0 | 0.00 | 0.22 | 0.21 | 90 | 1018.3 |
| 20260506130105 | 45 | 51 | 0.0 | 1.0 | 0.00 | 0.22 | 0.21 | 90 | 1018.2 |
| 20260506130005 | 45 | 56 | 0.0 | 1.0 | 0.00 | 0.22 | 0.21 | 90 | 1018.2 |
| 20260506125905 | 45 | 58 | 0.0 | 1.0 | 0.00 | 0.22 | 0.21 | 90 | 1018.2 |
| 20260506125704 | 45 | 60 | 0.0 | 1.0 | 0.00 | 0.22 | 0.21 | 90 | 1018.1 |
| 20260506125604 | 45 | 60 | 0.0 | 1.0 | 0.00 | 0.22 | 0.21 | 90 | 1018.1 |
| 20260506125504 | 45 | 61 | 0.0 | 1.0 | 0.00 | 0.22 | 0.21 | 90 | 1018.0 |
| 20260506125306 | 45 | 63 | 0.0 | 1.0 | 0.00 | 0.22 | 0.21 | 91 | 1017.9 |
| 20260506125204 | 45 | 67 | 0.0 | 1.0 | 0.00 | 0.22 | 0.21 | 91 | 1017.9 |
| 20260506125005 | 45 | 68 | 0.0 | 1.0 | 0.00 | 0.22 | 0.21 | 91 | 1017.7 |
| 20260506124904 | 45 | 68 | 0.0 | 1.0 | 0.00 | 0.22 | 0.21 | 91 | 1017.7 |
| 20260506124804 | 45 | 68 | 0.0 | 1.0 | 0.00 | 0.22 | 0.21 | 91 | 1017.6 |
| 20260506124705 | 45 | 68 | 0.0 | 1.0 | 0.00 | 0.22 | 0.21 | 91 | 1017.5 |
| 20260506124605 | 45 | 68 | 0.0 | 1.0 | 0.00 | 0.22 | 0.21 | 91 | 1017.5 |
| 20260506124505 | 45 | 68 | 0.0 | 1.0 | 0.00 | 0.22 | 0.21 | 91 | 1017.4 |
| 20260506124405 | 45 | 68 | 0.0 | 1.0 | 0.00 | 0.22 | 0.21 | 91 | 1017.4 |
| 20260506124305 | 45 | 68 | 0.0 | 1.0 | 0.00 | 0.22 | 0.21 | 91 | 1017.4 |
| 20260506124204 | 45 | 50 | 0.0 | 2.0 | 0.00 | 0.22 | 0.21 | 91 | 1017.4 |
| 20260506124104 | 45 | 48 | 0.0 | 2.0 | 0.00 | 0.22 | 0.21 | 91 | 1017.4 |
| 20260506124004 | 45 | 48 | 0.0 | 2.0 | 0.00 | 0.22 | 0.21 | 91 | 1017.4 |
| 20260506123904 | 45 | 48 | 0.0 | 2.0 | 0.00 | 0.22 | 0.21 | 91 | 1017.4 |
| 20260506123604 | 45 | 43 | 0.0 | 2.0 | 0.00 | 0.22 | 0.21 | 91 | 1017.5 |
| 20260506123505 | 45 | 43 | 0.0 | 2.0 | 0.00 | 0.22 | 0.21 | 91 | 1017.6 |
| 20260506123304 | 45 | 43 | 0.0 | 2.0 | 0.00 | 0.22 | 0.21 | 91 | 1017.7 |
| 20260506123204 | 45 | 68 | 0.0 | 1.0 | 0.00 | 0.22 | 0.21 | 91 | 1017.6 |
| 20260506123104 | 45 | 71 | 0.0 | 1.0 | 0.00 | 0.22 | 0.21 | 91 | 1017.6 |
| 20260506123004 | 45 | 71 | 0.0 | 1.0 | 0.00 | 0.22 | 0.21 | 91 | 1017.6 |
| 20260506122904 | 45 | 0 | 0.0 | 0.0 | 0.00 | 0.22 | 0.21 | 91 | 1017.7 |
| 20260506122604 | 45 | 0 | 0.0 | 0.0 | 0.00 | 0.22 | 0.21 | 91 | 1017.6 |
| 20260506122504 | 44 | 0 | 0.0 | 0.0 | 0.00 | 0.22 | 0.21 | 91 | 1017.6 |
| 20260506122404 | 44 | 71 | 0.0 | 1.0 | 0.00 | 0.22 | 0.21 | 91 | 1017.6 |
| 20260506122306 | 44 | 71 | 0.0 | 1.0 | 0.00 | 0.22 | 0.21 | 91 | 1017.6 |
| 20260506122204 | 44 | 71 | 0.0 | 1.0 | 0.00 | 0.22 | 0.21 | 91 | 1017.6 |
| 20260506122104 | 44 | 71 | 0.0 | 1.0 | 0.00 | 0.22 | 0.21 | 91 | 1017.5 |
| 20260506122005 | 44 | 71 | 0.0 | 1.0 | 0.00 | 0.22 | 0.21 | 91 | 1017.5 |
| 20260506121805 | 44 | 71 | 0.0 | 1.0 | 0.00 | 0.22 | 0.21 | 91 | 1017.5 |
| 20260506121704 | 44 | 71 | 0.0 | 1.0 | 0.00 | 0.22 | 0.21 | 91 | 1017.5 |
| 20260506121604 | 44 | 71 | 0.0 | 1.0 | 0.00 | 0.22 | 0.21 | 91 | 1017.5 |
| 20260506121504 | 44 | 71 | 0.0 | 1.0 | 0.00 | 0.22 | 0.21 | 91 | 1017.5 |
| 20260506121404 | 44 | 71 | 0.0 | 1.0 | 0.00 | 0.22 | 0.21 | 91 | 1017.5 |
| 20260506121304 | 44 | 71 | 0.0 | 1.0 | 0.00 | 0.22 | 0.21 | 91 | 1017.5 |
| 20260506121205 | 44 | 70 | 0.0 | 1.0 | 0.00 | 0.22 | 0.21 | 91 | 1017.4 |
| 20260506121005 | 44 | 69 | 0.0 | 1.0 | 0.00 | 0.22 | 0.21 | 91 | 1017.4 |
| 20260506120904 | 44 | 69 | 0.0 | 1.0 | 0.00 | 0.22 | 0.21 | 91 | 1017.4 |
| 20260506120805 | 44 | 40 | 0.0 | 3.0 | 0.00 | 0.22 | 0.21 | 91 | 1017.4 |
| 20260506120705 | 44 | 43 | 0.0 | 3.0 | 0.00 | 0.22 | 0.21 | 91 | 1017.3 |
| 20260506120505 | 44 | 51 | 0.0 | 3.0 | 0.00 | 0.22 | 0.21 | 91 | 1017.4 |
| 20260506120405 | 44 | 57 | 0.0 | 3.0 | 0.00 | 0.22 | 0.21 | 91 | 1017.4 |
| 20260506120305 | 44 | 53 | 0.0 | 3.0 | 0.00 | 0.22 | 0.21 | 91 | 1017.4 |
| 20260506120205 | 44 | 53 | 0.0 | 3.0 | 0.00 | 0.22 | 0.21 | 91 | 1017.4 |
| 20260506120105 | 44 | 52 | 0.0 | 3.0 | 0.00 | 0.22 | 0.21 | 91 | 1017.4 |
| 20260506120005 | 44 | 51 | 0.0 | 3.0 | 0.00 | 0.22 | 0.21 | 91 | 1017.3 |
| 20260506115905 | 44 | 50 | 0.0 | 3.0 | 0.00 | 0.22 | 0.21 | 91 | 1017.2 |
| 20260506115705 | 44 | 20 | 0.0 | 3.0 | 0.00 | 0.22 | 0.21 | 91 | 1017.1 |
| 20260506115605 | 44 | 356 | 0.0 | 3.0 | 0.00 | 0.22 | 0.21 | 91 | 1017.1 |
| 20260506115505 | 44 | 346 | 1.0 | 3.0 | 0.00 | 0.22 | 0.21 | 91 | 1017.1 |
| 20260506115405 | 44 | 334 | 0.0 | 3.0 | 0.00 | 0.22 | 0.21 | 91 | 1017.2 |
| 20260506115307 | 44 | 331 | 0.0 | 3.0 | 0.00 | 0.22 | 0.21 | 91 | 1017.2 |
| 20260506115205 | 44 | 338 | 1.0 | 3.0 | 0.00 | 0.22 | 0.21 | 90 | 1017.3 |
| 20260506115105 | 44 | 339 | 1.0 | 3.0 | 0.00 | 0.22 | 0.21 | 90 | 1017.3 |
| 20260506115005 | 44 | 346 | 1.0 | 3.0 | 0.00 | 0.22 | 0.21 | 90 | 1017.3 |
| 20260506114905 | 44 | 346 | 1.0 | 3.0 | 0.00 | 0.22 | 0.21 | 90 | 1017.3 |
| 20260506114705 | 44 | 5 | 1.0 | 3.0 | 0.00 | 0.22 | 0.21 | 90 | 1017.2 |
| 20260506114605 | 44 | 8 | 1.0 | 3.0 | 0.00 | 0.22 | 0.21 | 90 | 1017.3 |
| 20260506114504 | 44 | 15 | 1.0 | 3.0 | 0.00 | 0.22 | 0.21 | 90 | 1017.2 |
| 20260506114404 | 44 | 17 | 1.0 | 3.0 | 0.00 | 0.22 | 0.21 | 90 | 1017.1 |
| 20260506114204 | 44 | 33 | 1.0 | 3.0 | 0.00 | 0.22 | 0.21 | 90 | 1017.1 |
| 20260506114105 | 44 | 39 | 1.0 | 3.0 | 0.00 | 0.22 | 0.21 | 90 | 1017.0 |
| 20260506113905 | 44 | 40 | 1.0 | 3.0 | 0.00 | 0.22 | 0.21 | 90 | 1017.0 |
| 20260506113804 | 44 | 41 | 1.0 | 3.0 | 0.00 | 0.22 | 0.21 | 90 | 1016.9 |
| 20260506113704 | 44 | 41 | 1.0 | 3.0 | 0.00 | 0.22 | 0.21 | 90 | 1016.8 |
| 20260506113605 | 44 | 46 | 1.0 | 3.0 | 0.00 | 0.22 | 0.21 | 90 | 1016.8 |
| 20260506113504 | 44 | 47 | 1.0 | 4.0 | 0.00 | 0.22 | 0.21 | 90 | 1016.7 |
| 20260506113405 | 44 | 47 | 1.0 | 4.0 | 0.00 | 0.22 | 0.21 | 90 | 1016.6 |
| 20260506113205 | 44 | 45 | 1.0 | 4.0 | 0.00 | 0.22 | 0.21 | 90 | 1016.5 |
| 20260506113104 | 44 | 43 | 1.0 | 4.0 | 0.00 | 0.22 | 0.21 | 90 | 1016.5 |
| 20260506113005 | 44 | 43 | 1.0 | 4.0 | 0.00 | 0.22 | 0.21 | 90 | 1016.5 |
| 20260506112905 | 44 | 44 | 1.0 | 4.0 | 0.00 | 0.22 | 0.21 | 90 | 1016.5 |
| 20260506112704 | 44 | 38 | 1.0 | 4.0 | 0.00 | 0.22 | 0.21 | 90 | 1016.5 |
| 20260506112604 | 44 | 40 | 1.0 | 4.0 | 0.00 | 0.22 | 0.21 | 90 | 1016.5 |
| 20260506112504 | 44 | 37 | 1.0 | 3.0 | 0.00 | 0.22 | 0.21 | 90 | 1016.4 |
| 20260506112404 | 44 | 34 | 1.0 | 3.0 | 0.00 | 0.22 | 0.21 | 90 | 1016.5 |
| 20260506112105 | 44 | 25 | 1.0 | 4.0 | 0.00 | 0.22 | 0.21 | 89 | 1016.5 |
| 20260506111905 | 44 | 19 | 1.0 | 4.0 | 0.00 | 0.22 | 0.21 | 89 | 1016.6 |
| 20260506111805 | 44 | 20 | 1.0 | 4.0 | 0.00 | 0.22 | 0.21 | 89 | 1016.6 |
| 20260506111705 | 44 | 26 | 1.0 | 4.0 | 0.00 | 0.22 | 0.21 | 89 | 1016.5 |
| 20260506111604 | 44 | 28 | 1.0 | 5.0 | 0.00 | 0.22 | 0.21 | 89 | 1016.6 |
| 20260506111505 | 44 | 30 | 1.0 | 5.0 | 0.00 | 0.22 | 0.21 | 89 | 1016.5 |
| 20260506111405 | 44 | 32 | 1.0 | 5.0 | 0.00 | 0.22 | 0.21 | 89 | 1016.4 |
| 20260506111205 | 44 | 39 | 1.0 | 5.0 | 0.00 | 0.22 | 0.21 | 89 | 1016.2 |
| 20260506111105 | 44 | 37 | 1.0 | 5.0 | 0.00 | 0.22 | 0.21 | 89 | 1016.2 |
| 20260506111005 | 44 | 39 | 1.0 | 5.0 | 0.00 | 0.22 | 0.21 | 89 | 1016.1 |
| 20260506110904 | 44 | 50 | 1.0 | 5.0 | 0.00 | 0.22 | 0.21 | 89 | 1016.1 |
| 20260506110804 | 44 | 54 | 1.0 | 5.0 | 0.00 | 0.22 | 0.21 | 89 | 1016.1 |
| 20260506110705 | 44 | 59 | 1.0 | 5.0 | 0.00 | 0.22 | 0.21 | 89 | 1016.0 |
| 20260506110504 | 44 | 67 | 0.0 | 3.0 | 0.00 | 0.22 | 0.21 | 89 | 1016.0 |
| 20260506110405 | 44 | 75 | 0.0 | 2.0 | 0.00 | 0.22 | 0.21 | 89 | 1016.0 |
| 20260506110305 | 44 | 75 | 0.0 | 2.0 | 0.00 | 0.22 | 0.21 | 89 | 1016.1 |
| 20260506110204 | 44 | 75 | 0.0 | 2.0 | 0.00 | 0.22 | 0.21 | 89 | 1016.1 |
| 20260506110104 | 44 | 75 | 0.0 | 2.0 | 0.00 | 0.22 | 0.21 | 89 | 1016.2 |
| 20260506110004 | 44 | 75 | 0.0 | 2.0 | 0.00 | 0.22 | 0.21 | 89 | 1016.3 |
| 20260506105904 | 44 | 75 | 0.0 | 2.0 | 0.00 | 0.22 | 0.21 | 89 | 1016.4 |
| 20260506105804 | 44 | 82 | 0.0 | 2.0 | 0.00 | 0.22 | 0.21 | 89 | 1016.4 |
| 20260506105604 | 44 | 95 | 0.0 | 2.0 | 0.00 | 0.22 | 0.21 | 89 | 1016.3 |
| 20260506105404 | 44 | 92 | 0.0 | 2.0 | 0.00 | 0.22 | 0.21 | 89 | 1016.3 |
| 20260506105204 | 44 | 89 | 0.0 | 3.0 | 0.00 | 0.22 | 0.21 | 89 | 1016.2 |
| 20260506105005 | 44 | 90 | 0.0 | 3.0 | 0.00 | 0.22 | 0.21 | 89 | 1016.1 |
| 20260506104905 | 44 | 90 | 0.0 | 3.0 | 0.00 | 0.22 | 0.21 | 89 | 1016.0 |
| 20260506104805 | 44 | 89 | 0.0 | 3.0 | 0.00 | 0.22 | 0.21 | 89 | 1016.0 |
| 20260506104704 | 44 | 89 | 0.0 | 3.0 | 0.00 | 0.22 | 0.21 | 89 | 1015.9 |
| 20260506104604 | 44 | 85 | 0.0 | 3.0 | 0.00 | 0.22 | 0.21 | 89 | 1016.0 |
| 20260506104505 | 44 | 88 | 0.0 | 3.0 | 0.00 | 0.22 | 0.21 | 89 | 1016.1 |
| 20260506104405 | 44 | 89 | 0.0 | 3.0 | 0.00 | 0.22 | 0.21 | 89 | 1016.1 |
| 20260506104304 | 44 | 89 | 0.0 | 3.0 | 0.00 | 0.22 | 0.21 | 89 | 1016.1 |
| 20260506104204 | 44 | 91 | 0.0 | 1.0 | 0.00 | 0.22 | 0.21 | 89 | 1016.1 |
| 20260506104105 | 44 | 91 | 0.0 | 1.0 | 0.00 | 0.22 | 0.21 | 89 | 1016.1 |
| 20260506104005 | 44 | 85 | 0.0 | 1.0 | 0.00 | 0.22 | 0.21 | 89 | 1016.0 |
| 20260506103904 | 44 | 85 | 0.0 | 1.0 | 0.00 | 0.22 | 0.21 | 89 | 1016.0 |
| 20260506103804 | 44 | 63 | 0.0 | 2.0 | 0.00 | 0.22 | 0.21 | 89 | 1016.0 |
| 20260506103704 | 44 | 57 | 0.0 | 2.0 | 0.00 | 0.22 | 0.21 | 89 | 1016.1 |
| 20260506103604 | 44 | 11 | 0.0 | 3.0 | 0.00 | 0.22 | 0.21 | 89 | 1016.1 |
| 20260506103504 | 44 | 6 | 0.0 | 3.0 | 0.00 | 0.22 | 0.21 | 89 | 1016.2 |
| 20260506103404 | 44 | 354 | 0.0 | 3.0 | 0.00 | 0.22 | 0.21 | 89 | 1016.2 |
| 20260506103304 | 44 | 357 | 0.0 | 3.0 | 0.00 | 0.22 | 0.21 | 89 | 1016.2 |
| 20260506103204 | 44 | 356 | 0.0 | 3.0 | 0.00 | 0.22 | 0.21 | 89 | 1016.2 |
| 20260506103104 | 44 | 14 | 0.0 | 3.0 | 0.00 | 0.22 | 0.21 | 89 | 1016.2 |
| 20260506103004 | 44 | 21 | 0.0 | 3.0 | 0.00 | 0.22 | 0.21 | 89 | 1016.1 |
| 20260506102904 | 44 | 25 | 0.0 | 3.0 | 0.00 | 0.22 | 0.21 | 89 | 1016.1 |
| 20260506102804 | 44 | 57 | 0.0 | 4.0 | 0.00 | 0.22 | 0.21 | 89 | 1016.1 |
| 20260506102704 | 44 | 61 | 0.0 | 4.0 | 0.00 | 0.22 | 0.21 | 89 | 1016.0 |
| 20260506102604 | 44 | 84 | 0.0 | 4.0 | 0.00 | 0.22 | 0.21 | 89 | 1015.8 |
| 20260506102504 | 44 | 87 | 0.0 | 4.0 | 0.00 | 0.22 | 0.21 | 89 | 1015.7 |
| 20260506102404 | 44 | 88 | 1.0 | 4.0 | 0.00 | 0.22 | 0.21 | 89 | 1015.7 |
| 20260506102305 | 44 | 87 | 1.0 | 4.0 | 0.00 | 0.22 | 0.21 | 89 | 1015.7 |
| 20260506102204 | 44 | 85 | 1.0 | 4.0 | 0.00 | 0.22 | 0.21 | 89 | 1015.7 |
| 20260506102104 | 44 | 87 | 1.0 | 4.0 | 0.00 | 0.22 | 0.21 | 89 | 1015.7 |
| 20260506102005 | 44 | 87 | 1.0 | 4.0 | 0.00 | 0.22 | 0.21 | 89 | 1015.6 |
| 20260506101905 | 44 | 88 | 1.0 | 4.0 | 0.00 | 0.22 | 0.21 | 89 | 1015.6 |
| 20260506101805 | 44 | 88 | 1.0 | 4.0 | 0.00 | 0.22 | 0.21 | 90 | 1015.6 |
| 20260506101705 | 44 | 87 | 1.0 | 5.0 | 0.00 | 0.22 | 0.21 | 89 | 1015.6 |
| 20260506101605 | 44 | 87 | 1.0 | 5.0 | 0.00 | 0.22 | 0.21 | 90 | 1015.6 |
| 20260506101505 | 44 | 87 | 1.0 | 5.0 | 0.00 | 0.22 | 0.21 | 90 | 1015.7 |
| 20260506101405 | 44 | 84 | 1.0 | 5.0 | 0.00 | 0.22 | 0.21 | 90 | 1015.7 |
| 20260506101305 | 44 | 73 | 1.0 | 5.0 | 0.00 | 0.22 | 0.21 | 90 | 1015.9 |
| 20260506101105 | 44 | 73 | 1.0 | 5.0 | 0.00 | 0.22 | 0.21 | 90 | 1015.9 |
| 20260506101005 | 44 | 74 | 1.0 | 5.0 | 0.00 | 0.22 | 0.21 | 90 | 1015.9 |
| 20260506100805 | 44 | 65 | 1.0 | 5.0 | 0.00 | 0.22 | 0.21 | 90 | 1016.1 |
| 20260506100705 | 44 | 48 | 1.0 | 3.0 | 0.00 | 0.22 | 0.21 | 90 | 1016.1 |
| 20260506100604 | 44 | 55 | 1.0 | 3.0 | 0.00 | 0.22 | 0.21 | 90 | 1016.2 |
| 20260506100504 | 44 | 60 | 1.0 | 3.0 | 0.00 | 0.22 | 0.21 | 90 | 1016.2 |
| 20260506100204 | 44 | 80 | 1.0 | 3.0 | 0.00 | 0.22 | 0.21 | 90 | 1016.1 |
| 20260506100104 | 44 | 80 | 1.0 | 5.0 | 0.00 | 0.22 | 0.21 | 90 | 1016.0 |
| 20260506100005 | 44 | 79 | 1.0 | 5.0 | 0.00 | 0.22 | 0.21 | 90 | 1015.9 |
| 20260506095904 | 44 | 83 | 1.0 | 5.0 | 0.00 | 0.22 | 0.21 | 90 | 1015.9 |
| 20260506095804 | 44 | 85 | 1.0 | 5.0 | 0.00 | 0.22 | 0.21 | 90 | 1015.9 |
| 20260506095605 | 44 | 89 | 1.0 | 5.0 | 0.00 | 0.22 | 0.21 | 90 | 1015.6 |
| 20260506095505 | 44 | 78 | 1.0 | 5.0 | 0.00 | 0.22 | 0.21 | 90 | 1015.6 |
| 20260506095404 | 44 | 72 | 1.0 | 5.0 | 0.00 | 0.22 | 0.21 | 90 | 1015.6 |
| 20260506095306 | 44 | 61 | 1.0 | 5.0 | 0.00 | 0.22 | 0.21 | 90 | 1015.6 |
| 20260506095204 | 44 | 48 | 1.0 | 5.0 | 0.00 | 0.22 | 0.21 | 90 | 1015.6 |
| 20260506095104 | 44 | 25 | 1.0 | 4.0 | 0.00 | 0.22 | 0.21 | 90 | 1015.7 |
| 20260506095004 | 44 | 19 | 1.0 | 4.0 | 0.00 | 0.22 | 0.21 | 90 | 1015.8 |
| 20260506094904 | 44 | 12 | 1.0 | 4.0 | 0.00 | 0.22 | 0.21 | 90 | 1016.0 |
| 20260506094804 | 44 | 16 | 1.0 | 4.0 | 0.00 | 0.22 | 0.21 | 90 | 1016.1 |
| 20260506094704 | 44 | 9 | 1.0 | 4.0 | 0.00 | 0.22 | 0.21 | 90 | 1016.2 |
| 20260506094604 | 44 | 9 | 1.0 | 4.0 | 0.00 | 0.22 | 0.21 | 90 | 1016.3 |
| 20260506094504 | 44 | 11 | 1.0 | 4.0 | 0.00 | 0.22 | 0.21 | 90 | 1016.2 |
| 20260506094405 | 44 | 14 | 1.0 | 4.0 | 0.00 | 0.22 | 0.21 | 90 | 1016.2 |
| 20260506094305 | 44 | 20 | 1.0 | 4.0 | 0.00 | 0.22 | 0.21 | 90 | 1016.1 |
| 20260506094205 | 44 | 26 | 1.0 | 4.0 | 0.00 | 0.22 | 0.21 | 90 | 1016.1 |
| 20260506094104 | 44 | 33 | 1.0 | 4.0 | 0.00 | 0.22 | 0.21 | 90 | 1016.0 |
| 20260506094004 | 44 | 39 | 1.0 | 4.0 | 0.00 | 0.22 | 0.21 | 90 | 1015.9 |
| 20260506093904 | 44 | 48 | 1.0 | 4.0 | 0.00 | 0.22 | 0.21 | 90 | 1016.0 |
| 20260506093705 | 44 | 70 | 1.0 | 4.0 | 0.00 | 0.22 | 0.21 | 90 | 1015.9 |
| 20260506093505 | 44 | 91 | 0.0 | 4.0 | 0.00 | 0.22 | 0.21 | 90 | 1015.8 |
| 20260506093304 | 44 | 89 | 1.0 | 4.0 | 0.00 | 0.22 | 0.21 | 90 | 1015.7 |
| 20260506093205 | 44 | 69 | 1.0 | 4.0 | 0.00 | 0.22 | 0.21 | 90 | 1015.7 |
| 20260506093104 | 44 | 60 | 1.0 | 4.0 | 0.00 | 0.22 | 0.21 | 90 | 1015.7 |
| 20260506093004 | 44 | 60 | 1.0 | 4.0 | 0.00 | 0.22 | 0.21 | 90 | 1015.7 |
| 20260506092904 | 44 | 48 | 1.0 | 4.0 | 0.00 | 0.22 | 0.21 | 90 | 1015.7 |
| 20260506092804 | 44 | 45 | 0.0 | 4.0 | 0.00 | 0.22 | 0.21 | 90 | 1015.8 |
| 20260506092705 | 44 | 37 | 0.0 | 4.0 | 0.01 | 0.22 | 0.21 | 90 | 1015.9 |
| 20260506092604 | 44 | 47 | 1.0 | 5.0 | 0.01 | 0.22 | 0.21 | 90 | 1016.0 |
| 20260506092405 | 44 | 48 | 1.0 | 5.0 | 0.01 | 0.22 | 0.21 | 90 | 1016.2 |
| 20260506092306 | 44 | 50 | 1.0 | 5.0 | 0.01 | 0.22 | 0.21 | 90 | 1016.2 |
| 20260506092204 | 44 | 49 | 1.0 | 5.0 | 0.01 | 0.22 | 0.21 | 90 | 1016.1 |
| 20260506092104 | 44 | 56 | 1.0 | 5.0 | 0.01 | 0.22 | 0.21 | 90 | 1016.0 |
| 20260506092004 | 44 | 57 | 1.0 | 5.0 | 0.01 | 0.22 | 0.21 | 90 | 1015.9 |
| 20260506091904 | 44 | 69 | 1.0 | 5.0 | 0.01 | 0.22 | 0.21 | 90 | 1015.9 |
| 20260506091704 | 44 | 70 | 1.0 | 5.0 | 0.01 | 0.22 | 0.21 | 90 | 1015.9 |
| 20260506091604 | 44 | 67 | 0.0 | 3.0 | 0.01 | 0.22 | 0.21 | 90 | 1016.0 |
| 20260506091505 | 44 | 67 | 0.0 | 3.0 | 0.01 | 0.22 | 0.21 | 90 | 1016.0 |
| 20260506091404 | 44 | 61 | 0.0 | 3.0 | 0.01 | 0.22 | 0.21 | 90 | 1016.0 |
| 20260506091205 | 44 | 90 | 0.0 | 7.0 | 0.02 | 0.22 | 0.21 | 90 | 1016.0 |
| 20260506091104 | 44 | 90 | 1.0 | 7.0 | 0.02 | 0.22 | 0.21 | 90 | 1016.1 |
| 20260506091004 | 44 | 90 | 1.0 | 7.0 | 0.02 | 0.22 | 0.21 | 90 | 1016.1 |
| 20260506090904 | 44 | 90 | 1.0 | 7.0 | 0.02 | 0.22 | 0.21 | 90 | 1016.2 |
| 20260506090504 | 44 | 92 | 1.0 | 7.0 | 0.02 | 0.22 | 0.21 | 90 | 1016.1 |
| 20260506090304 | 44 | 91 | 0.0 | 7.0 | 0.02 | 0.22 | 0.21 | 90 | 1016.0 |
| 20260506090204 | 44 | 94 | 0.0 | 3.0 | 0.02 | 0.22 | 0.21 | 90 | 1015.9 |
| 20260506090004 | 44 | 89 | 0.0 | 3.0 | 0.03 | 0.22 | 0.21 | 91 | 1016.0 |
| 20260506085904 | 44 | 89 | 0.0 | 3.0 | 0.03 | 0.22 | 0.21 | 91 | 1016.0 |
| 20260506085805 | 44 | 86 | 0.0 | 3.0 | 0.03 | 0.22 | 0.21 | 91 | 1016.0 |
| 20260506085704 | 44 | 74 | 0.0 | 2.0 | 0.03 | 0.22 | 0.21 | 91 | 1016.2 |
| 20260506085604 | 44 | 69 | 0.0 | 2.0 | 0.03 | 0.22 | 0.21 | 91 | 1016.3 |
| 20260506085504 | 44 | 65 | 0.0 | 2.0 | 0.03 | 0.22 | 0.21 | 91 | 1016.4 |
| 20260506085404 | 44 | 64 | 0.0 | 3.0 | 0.03 | 0.22 | 0.21 | 91 | 1016.5 |
| 20260506085306 | 44 | 71 | 1.0 | 3.0 | 0.03 | 0.22 | 0.21 | 91 | 1016.5 |
| 20260506085204 | 44 | 73 | 1.0 | 3.0 | 0.03 | 0.22 | 0.21 | 91 | 1016.6 |
| 20260506085104 | 44 | 72 | 1.0 | 3.0 | 0.03 | 0.22 | 0.21 | 91 | 1016.5 |
| 20260506085004 | 44 | 61 | 1.0 | 3.0 | 0.03 | 0.22 | 0.21 | 91 | 1016.6 |
| 20260506084904 | 44 | 59 | 1.0 | 3.0 | 0.03 | 0.22 | 0.21 | 91 | 1016.4 |
| 20260506084804 | 44 | 56 | 1.0 | 3.0 | 0.03 | 0.22 | 0.21 | 91 | 1016.2 |
| 20260506084704 | 44 | 33 | 1.0 | 6.0 | 0.03 | 0.22 | 0.21 | 91 | 1016.2 |
| 20260506084604 | 44 | 23 | 1.0 | 6.0 | 0.03 | 0.22 | 0.21 | 91 | 1016.1 |
| 20260506084504 | 44 | 22 | 1.0 | 6.0 | 0.03 | 0.22 | 0.21 | 91 | 1016.1 |
| 20260506084404 | 44 | 11 | 1.0 | 6.0 | 0.03 | 0.22 | 0.21 | 91 | 1016.1 |
| 20260506084304 | 44 | 6 | 1.0 | 6.0 | 0.03 | 0.22 | 0.21 | 91 | 1016.2 |
| 20260506084105 | 44 | 4 | 2.0 | 6.0 | 0.04 | 0.22 | 0.21 | 91 | 1016.4 |
| 20260506083904 | 44 | 346 | 2.0 | 6.0 | 0.04 | 0.22 | 0.21 | 91 | 1016.4 |
| 20260506083805 | 44 | 347 | 1.0 | 6.0 | 0.04 | 0.22 | 0.21 | 91 | 1016.4 |
| 20260506083705 | 44 | 354 | 1.0 | 4.0 | 0.04 | 0.22 | 0.21 | 91 | 1016.4 |
| 20260506083605 | 44 | 4 | 1.0 | 4.0 | 0.04 | 0.22 | 0.21 | 91 | 1016.4 |
| 20260506083504 | 44 | 1 | 1.0 | 4.0 | 0.04 | 0.22 | 0.21 | 91 | 1016.4 |
| 20260506083405 | 44 | 6 | 1.0 | 4.0 | 0.04 | 0.22 | 0.21 | 91 | 1016.3 |
| 20260506083305 | 44 | 353 | 1.0 | 4.0 | 0.04 | 0.22 | 0.21 | 91 | 1016.4 |
| 20260506083205 | 44 | 353 | 1.0 | 4.0 | 0.04 | 0.22 | 0.21 | 91 | 1016.4 |
| 20260506083104 | 44 | 338 | 1.0 | 4.0 | 0.04 | 0.22 | 0.21 | 91 | 1016.4 |
| 20260506083004 | 44 | 344 | 1.0 | 4.0 | 0.04 | 0.22 | 0.21 | 91 | 1016.4 |
| 20260506082905 | 44 | 341 | 1.0 | 4.0 | 0.04 | 0.22 | 0.21 | 91 | 1016.4 |
| 20260506082805 | 44 | 338 | 2.0 | 4.0 | 0.04 | 0.22 | 0.21 | 91 | 1016.5 |
| 20260506082705 | 44 | 337 | 2.0 | 4.0 | 0.03 | 0.21 | 0.20 | 91 | 1016.5 |
| 20260506082605 | 44 | 331 | 2.0 | 4.0 | 0.03 | 0.21 | 0.20 | 91 | 1016.6 |
| 20260506082505 | 44 | 333 | 2.0 | 4.0 | 0.03 | 0.21 | 0.20 | 91 | 1016.7 |
| 20260506082305 | 44 | 337 | 2.0 | 4.0 | 0.03 | 0.21 | 0.20 | 90 | 1016.8 |
| 20260506082005 | 44 | 340 | 2.0 | 4.0 | 0.04 | 0.21 | 0.20 | 90 | 1016.7 |
| 20260506081905 | 44 | 341 | 2.0 | 4.0 | 0.04 | 0.21 | 0.20 | 90 | 1016.6 |
| 20260506081805 | 44 | 340 | 2.0 | 5.0 | 0.04 | 0.21 | 0.20 | 90 | 1016.5 |
| 20260506081705 | 44 | 340 | 2.0 | 6.0 | 0.04 | 0.21 | 0.20 | 90 | 1016.5 |
| 20260506081505 | 44 | 346 | 2.0 | 6.0 | 0.04 | 0.21 | 0.20 | 90 | 1016.4 |
| 20260506081405 | 44 | 343 | 2.0 | 6.0 | 0.04 | 0.21 | 0.20 | 90 | 1016.6 |
| 20260506081305 | 44 | 342 | 2.0 | 6.0 | 0.04 | 0.21 | 0.20 | 90 | 1016.6 |
| 20260506081205 | 44 | 342 | 1.0 | 6.0 | 0.04 | 0.20 | 0.19 | 90 | 1016.6 |
| 20260506081105 | 44 | 339 | 1.0 | 6.0 | 0.04 | 0.20 | 0.19 | 90 | 1016.5 |
| 20260506081005 | 44 | 337 | 1.0 | 6.0 | 0.05 | 0.20 | 0.19 | 90 | 1016.3 |
| 20260506080905 | 44 | 335 | 1.0 | 6.0 | 0.05 | 0.20 | 0.19 | 90 | 1016.2 |
| 20260506080705 | 44 | 357 | 1.0 | 5.0 | 0.06 | 0.20 | 0.19 | 90 | 1016.1 |
| 20260506080605 | 44 | 345 | 1.0 | 5.0 | 0.06 | 0.20 | 0.19 | 90 | 1016.1 |
| 20260506080505 | 44 | 357 | 1.0 | 5.0 | 0.06 | 0.20 | 0.19 | 90 | 1016.2 |
| 20260506080405 | 44 | 4 | 1.0 | 5.0 | 0.07 | 0.20 | 0.19 | 90 | 1016.3 |
| 20260506080305 | 44 | 11 | 1.0 | 5.0 | 0.07 | 0.20 | 0.19 | 90 | 1016.3 |
| 20260506080205 | 44 | 5 | 1.0 | 6.0 | 0.08 | 0.20 | 0.19 | 90 | 1016.4 |
| 20260506080105 | 44 | 6 | 2.0 | 6.0 | 0.08 | 0.20 | 0.19 | 90 | 1016.4 |
| 20260506073505 | 44 | 28 | 2.0 | 5.0 | 0.11 | 0.18 | 0.17 | 89 | 1015.4 |
| 20260506073404 | 44 | 26 | 2.0 | 6.0 | 0.11 | 0.18 | 0.17 | 89 | 1015.4 |
| 20260506073304 | 44 | 28 | 2.0 | 6.0 | 0.11 | 0.18 | 0.17 | 89 | 1015.3 |
| 20260506073204 | 44 | 33 | 2.0 | 6.0 | 0.11 | 0.18 | 0.17 | 89 | 1015.3 |
| 20260506073104 | 45 | 39 | 2.0 | 6.0 | 0.12 | 0.18 | 0.17 | 89 | 1015.2 |
| 20260506073004 | 45 | 38 | 2.0 | 6.0 | 0.12 | 0.18 | 0.17 | 89 | 1015.2 |
| 20260506072804 | 45 | 39 | 2.0 | 6.0 | 0.12 | 0.18 | 0.17 | 89 | 1015.2 |
| 20260506072704 | 44 | 39 | 2.0 | 6.0 | 0.12 | 0.18 | 0.17 | 89 | 1015.2 |
| 20260506072604 | 45 | 39 | 2.0 | 6.0 | 0.12 | 0.18 | 0.17 | 89 | 1015.1 |
| 20260506072504 | 45 | 37 | 2.0 | 7.0 | 0.13 | 0.18 | 0.17 | 89 | 1015.0 |
| 20260506072404 | 45 | 42 | 2.0 | 7.0 | 0.13 | 0.18 | 0.17 | 88 | 1014.9 |
| 20260506072204 | 45 | 46 | 2.0 | 7.0 | 0.13 | 0.18 | 0.17 | 88 | 1014.9 |
| 20260506072104 | 45 | 45 | 3.0 | 7.0 | 0.12 | 0.17 | 0.16 | 88 | 1014.9 |
| 20260506072004 | 45 | 47 | 3.0 | 7.0 | 0.12 | 0.17 | 0.16 | 88 | 1014.9 |
| 20260506071904 | 45 | 52 | 3.0 | 8.0 | 0.12 | 0.17 | 0.16 | 88 | 1015.0 |
| 20260506071704 | 45 | 56 | 2.0 | 8.0 | 0.13 | 0.17 | 0.16 | 88 | 1015.0 |
| 20260506071604 | 45 | 55 | 2.0 | 8.0 | 0.13 | 0.17 | 0.16 | 88 | 1015.0 |
| 20260506071304 | 45 | 73 | 2.0 | 10.0 | 0.14 | 0.17 | 0.16 | 88 | 1014.9 |
| 20260506071205 | 45 | 65 | 2.0 | 10.0 | 0.13 | 0.16 | 0.15 | 88 | 1014.9 |
| 20260506071105 | 45 | 64 | 2.0 | 10.0 | 0.13 | 0.16 | 0.15 | 88 | 1014.9 |
| 20260506071005 | 45 | 63 | 2.0 | 10.0 | 0.12 | 0.15 | 0.14 | 87 | 1014.8 |
| 20260506070905 | 45 | 57 | 3.0 | 10.0 | 0.13 | 0.15 | 0.14 | 88 | 1014.8 |
| 20260506070804 | 45 | 53 | 3.0 | 10.0 | 0.12 | 0.14 | 0.13 | 88 | 1014.7 |
| 20260506070704 | 45 | 50 | 3.0 | 10.0 | 0.12 | 0.14 | 0.13 | 88 | 1014.6 |
| 20260506070604 | 45 | 51 | 3.0 | 10.0 | 0.12 | 0.14 | 0.13 | 87 | 1014.6 |
| 20260506070504 | 45 | 43 | 3.0 | 9.0 | 0.12 | 0.13 | 0.12 | 88 | 1014.7 |
| 20260506070404 | 45 | 39 | 3.0 | 9.0 | 0.12 | 0.13 | 0.12 | 88 | 1014.8 |
| 20260506070304 | 45 | 37 | 3.0 | 9.0 | 0.11 | 0.12 | 0.11 | 88 | 1014.9 |
| 20260506070204 | 45 | 42 | 2.0 | 9.0 | 0.11 | 0.12 | 0.11 | 87 | 1014.8 |
| 20260506070104 | 45 | 42 | 2.0 | 9.0 | 0.11 | 0.12 | 0.11 | 87 | 1014.8 |
| 20260506062505 | 46 | 30 | 2.0 | 7.0 | 0.04 | 0.06 | 0.04 | 84 | 1015.7 |
| 20260506062405 | 46 | 33 | 2.0 | 7.0 | 0.04 | 0.06 | 0.04 | 84 | 1015.7 |
| 20260506062306 | 46 | 33 | 2.0 | 7.0 | 0.04 | 0.06 | 0.04 | 84 | 1015.7 |
| 20260506062105 | 46 | 36 | 2.0 | 8.0 | 0.04 | 0.06 | 0.04 | 83 | 1015.6 |
| 20260506062005 | 46 | 35 | 2.0 | 8.0 | 0.04 | 0.06 | 0.04 | 83 | 1015.6 |
| 20260506061905 | 46 | 31 | 2.0 | 8.0 | 0.04 | 0.06 | 0.04 | 83 | 1015.5 |
| 20260506061805 | 46 | 32 | 2.0 | 8.0 | 0.03 | 0.05 | 0.03 | 83 | 1015.4 |
| 20260506061704 | 46 | 26 | 2.0 | 8.0 | 0.03 | 0.05 | 0.03 | 83 | 1015.3 |
| 20260506061605 | 46 | 36 | 2.0 | 8.0 | 0.03 | 0.05 | 0.03 | 83 | 1015.3 |
| 20260506061404 | 46 | 46 | 2.0 | 8.0 | 0.02 | 0.04 | 0.02 | 82 | 1015.1 |
| 20260506061304 | 46 | 48 | 2.0 | 8.0 | 0.02 | 0.04 | 0.02 | 82 | 1015.0 |
| 20260506061205 | 46 | 46 | 2.0 | 9.0 | 0.02 | 0.04 | 0.02 | 82 | 1014.9 |
| 20260506061104 | 46 | 54 | 2.0 | 9.0 | 0.02 | 0.04 | 0.02 | 82 | 1014.9 |
| 20260506061004 | 47 | 57 | 3.0 | 9.0 | 0.01 | 0.03 | 0.01 | 82 | 1014.8 |
| 20260506060904 | 47 | 59 | 3.0 | 9.0 | 0.01 | 0.03 | 0.01 | 81 | 1014.7 |
| 20260506060804 | 47 | 57 | 3.0 | 9.0 | 0.01 | 0.03 | 0.01 | 81 | 1014.6 |
| 20260506060604 | 47 | 58 | 3.0 | 9.0 | 0.00 | 0.02 | 0.00 | 80 | 1014.6 |
| 20260506060404 | 47 | 48 | 3.0 | 10.0 | 0.00 | 0.02 | 0.00 | 80 | 1014.5 |
| 20260506060304 | 47 | 48 | 3.0 | 10.0 | 0.00 | 0.02 | 0.00 | 80 | 1014.6 |
| 20260506060204 | 47 | 48 | 3.0 | 10.0 | 0.00 | 0.02 | 0.00 | 80 | 1014.5 |
| 20260506060104 | 47 | 45 | 3.0 | 10.0 | 0.00 | 0.02 | 0.00 | 79 | 1014.5 |
| 20260506051404 | 49 | 46 | 4.0 | 11.0 | 0.00 | 0.02 | 0.00 | 74 | 1014.0 |
| 20260506051304 | 49 | 43 | 4.0 | 11.0 | 0.00 | 0.02 | 0.00 | 74 | 1014.0 |
| 20260506051204 | 49 | 40 | 4.0 | 11.0 | 0.00 | 0.02 | 0.00 | 73 | 1014.0 |
| 20260506051104 | 49 | 39 | 4.0 | 11.0 | 0.00 | 0.02 | 0.00 | 73 | 1014.1 |
| 20260506051004 | 49 | 40 | 4.0 | 11.0 | 0.00 | 0.02 | 0.00 | 73 | 1014.2 |
| 20260506050904 | 49 | 36 | 4.0 | 11.0 | 0.00 | 0.02 | 0.00 | 73 | 1014.2 |
| 20260506050804 | 49 | 32 | 4.0 | 11.0 | 0.00 | 0.02 | 0.00 | 72 | 1014.4 |
| 20260506050705 | 49 | 26 | 3.0 | 10.0 | 0.00 | 0.03 | 0.00 | 72 | 1014.4 |
| 20260506050605 | 49 | 25 | 3.0 | 10.0 | 0.00 | 0.04 | 0.00 | 72 | 1014.5 |
| 20260506050504 | 49 | 15 | 3.0 | 10.0 | 0.00 | 0.05 | 0.00 | 72 | 1014.4 |
| 20260506050404 | 49 | 9 | 3.0 | 10.0 | 0.00 | 0.06 | 0.00 | 72 | 1014.4 |
| 20260506050304 | 49 | 4 | 3.0 | 7.0 | 0.00 | 0.07 | 0.00 | 72 | 1014.5 |
| 20260506050204 | 49 | 7 | 3.0 | 7.0 | 0.00 | 0.07 | 0.00 | 72 | 1014.5 |
| 20260506050104 | 49 | 1 | 3.0 | 7.0 | 0.00 | 0.07 | 0.00 | 72 | 1014.5 |
| 20260506045104 | 50 | 1 | 3.0 | 10.0 | 0.00 | 0.12 | 0.08 | 70 | 1014.6 |
| 20260506045004 | 50 | 358 | 3.0 | 10.0 | 0.00 | 0.12 | 0.08 | 69 | 1014.6 |
| 20260506044904 | 50 | 359 | 3.0 | 10.0 | 0.00 | 0.12 | 0.08 | 70 | 1014.6 |
| 20260506044805 | 50 | 2 | 3.0 | 10.0 | 0.00 | 0.12 | 0.08 | 70 | 1014.5 |
| 20260506044705 | 50 | 3 | 3.0 | 11.0 | 0.00 | 0.12 | 0.08 | 69 | 1014.5 |
| 20260506044604 | 50 | 2 | 3.0 | 11.0 | 0.00 | 0.12 | 0.08 | 69 | 1014.5 |
| 20260506044504 | 50 | 6 | 3.0 | 11.0 | 0.00 | 0.12 | 0.08 | 69 | 1014.5 |
| 20260506044404 | 50 | 13 | 3.0 | 11.0 | 0.00 | 0.12 | 0.08 | 69 | 1014.4 |
| 20260506044304 | 50 | 17 | 3.0 | 11.0 | 0.00 | 0.12 | 0.08 | 69 | 1014.5 |
| 20260506044204 | 50 | 20 | 3.0 | 11.0 | 0.00 | 0.12 | 0.08 | 69 | 1014.4 |
| 20260506044104 | 50 | 26 | 3.0 | 11.0 | 0.00 | 0.12 | 0.08 | 69 | 1014.4 |
| 20260506044004 | 50 | 29 | 3.0 | 11.0 | 0.00 | 0.12 | 0.08 | 69 | 1014.4 |
| 20260506043904 | 50 | 32 | 3.0 | 11.0 | 0.00 | 0.12 | 0.08 | 69 | 1014.2 |
| 20260506043804 | 50 | 35 | 2.0 | 11.0 | 0.00 | 0.12 | 0.08 | 69 | 1014.3 |
| 20260506043705 | 50 | 42 | 2.0 | 10.0 | 0.00 | 0.12 | 0.08 | 69 | 1014.2 |
| 20260506043505 | 50 | 45 | 2.0 | 10.0 | 0.00 | 0.12 | 0.08 | 70 | 1014.2 |
| 20260506043404 | 50 | 44 | 2.0 | 10.0 | 0.00 | 0.12 | 0.08 | 70 | 1014.2 |
| 20260506043304 | 50 | 43 | 3.0 | 11.0 | 0.00 | 0.12 | 0.08 | 70 | 1014.2 |
| 20260506043104 | 50 | 48 | 2.0 | 11.0 | 0.00 | 0.12 | 0.08 | 70 | 1014.1 |
| 20260506042804 | 50 | 56 | 3.0 | 11.0 | 0.00 | 0.12 | 0.08 | 71 | 1014.1 |
| 20260506042604 | 50 | 52 | 3.0 | 12.0 | 0.00 | 0.12 | 0.08 | 71 | 1014.0 |
| 20260506042505 | 50 | 51 | 3.0 | 12.0 | 0.00 | 0.12 | 0.08 | 71 | 1013.9 |
| 20260506042405 | 50 | 50 | 3.0 | 12.0 | 0.00 | 0.12 | 0.08 | 71 | 1013.8 |
| 20260506042305 | 50 | 50 | 3.0 | 12.0 | 0.00 | 0.12 | 0.08 | 72 | 1013.9 |
| 20260506042204 | 50 | 43 | 3.0 | 12.0 | 0.00 | 0.12 | 0.08 | 72 | 1013.9 |
| 20260506042104 | 50 | 40 | 3.0 | 12.0 | 0.00 | 0.12 | 0.08 | 72 | 1014.1 |
| 20260506042004 | 50 | 38 | 3.0 | 12.0 | 0.00 | 0.12 | 0.08 | 72 | 1014.1 |
| 20260506041904 | 50 | 34 | 3.0 | 12.0 | 0.00 | 0.12 | 0.08 | 72 | 1014.2 |
| 20260506041705 | 50 | 29 | 3.0 | 12.0 | 0.00 | 0.12 | 0.08 | 73 | 1014.2 |
| 20260506041604 | 50 | 22 | 3.0 | 7.0 | 0.00 | 0.12 | 0.08 | 73 | 1014.1 |
| 20260506041404 | 50 | 23 | 3.0 | 7.0 | 0.00 | 0.12 | 0.08 | 74 | 1014.1 |
| 20260506041304 | 50 | 23 | 3.0 | 7.0 | 0.00 | 0.12 | 0.08 | 74 | 1014.2 |
| 20260506041204 | 50 | 27 | 3.0 | 10.0 | 0.00 | 0.12 | 0.08 | 75 | 1014.2 |
| 20260506041105 | 50 | 24 | 3.0 | 10.0 | 0.00 | 0.12 | 0.08 | 75 | 1014.2 |
| 20260506040905 | 50 | 23 | 3.0 | 10.0 | 0.00 | 0.12 | 0.08 | 75 | 1014.1 |
| 20260506040704 | 50 | 19 | 3.0 | 10.0 | 0.00 | 0.12 | 0.08 | 76 | 1014.0 |
| 20260506040604 | 50 | 20 | 3.0 | 10.0 | 0.00 | 0.12 | 0.08 | 76 | 1014.1 |
| 20260506040504 | 50 | 18 | 3.0 | 10.0 | 0.00 | 0.12 | 0.08 | 76 | 1014.0 |
| 20260506040404 | 50 | 20 | 3.0 | 10.0 | 0.00 | 0.12 | 0.08 | 76 | 1014.0 |
| 20260506040304 | 50 | 19 | 3.0 | 10.0 | 0.00 | 0.12 | 0.08 | 76 | 1014.0 |
| 20260506040205 | 50 | 21 | 3.0 | 9.0 | 0.00 | 0.12 | 0.08 | 76 | 1014.0 |
| 20260506035904 | 50 | 28 | 2.0 | 9.0 | 0.00 | 0.12 | 0.08 | 77 | 1014.1 |
| 20260506035704 | 50 | 33 | 2.0 | 9.0 | 0.00 | 0.12 | 0.08 | 77 | 1014.1 |
| 20260506035605 | 50 | 42 | 2.0 | 9.0 | 0.00 | 0.12 | 0.08 | 77 | 1014.1 |
| 20260506035505 | 50 | 45 | 2.0 | 9.0 | 0.00 | 0.12 | 0.08 | 78 | 1014.1 |
| 20260506035404 | 50 | 42 | 1.0 | 9.0 | 0.00 | 0.12 | 0.08 | 78 | 1014.2 |
| 20260506035306 | 50 | 44 | 1.0 | 7.0 | 0.00 | 0.12 | 0.08 | 78 | 1014.1 |
| 20260506035204 | 50 | 41 | 1.0 | 7.0 | 0.00 | 0.12 | 0.08 | 78 | 1014.2 |
| 20260506035104 | 50 | 44 | 1.0 | 4.0 | 0.00 | 0.12 | 0.08 | 78 | 1014.2 |
| 20260506035005 | 50 | 45 | 1.0 | 4.0 | 0.00 | 0.12 | 0.08 | 79 | 1014.3 |
| 20260506034805 | 50 | 49 | 1.0 | 4.0 | 0.00 | 0.12 | 0.08 | 79 | 1014.2 |
| 20260506034705 | 50 | 50 | 1.0 | 4.0 | 0.00 | 0.12 | 0.08 | 79 | 1014.2 |
| 20260506034604 | 50 | 51 | 1.0 | 4.0 | 0.00 | 0.12 | 0.08 | 79 | 1014.2 |
| 20260506034504 | 50 | 49 | 1.0 | 4.0 | 0.00 | 0.12 | 0.08 | 79 | 1014.2 |
| 20260506034404 | 50 | 54 | 1.0 | 4.0 | 0.00 | 0.12 | 0.08 | 79 | 1014.2 |
| 20260506034304 | 50 | 52 | 1.0 | 4.0 | 0.00 | 0.12 | 0.08 | 79 | 1014.2 |
| 20260506034205 | 50 | 55 | 1.0 | 4.0 | 0.00 | 0.12 | 0.08 | 79 | 1014.2 |
| 20260506034105 | 50 | 53 | 1.0 | 4.0 | 0.00 | 0.12 | 0.08 | 79 | 1014.3 |
| 20260506033904 | 50 | 43 | 1.0 | 4.0 | 0.00 | 0.12 | 0.08 | 79 | 1014.4 |
| 20260506033804 | 50 | 41 | 1.0 | 4.0 | 0.00 | 0.12 | 0.08 | 79 | 1014.4 |
| 20260506033604 | 50 | 34 | 1.0 | 4.0 | 0.00 | 0.12 | 0.08 | 79 | 1014.4 |
| 20260506033504 | 50 | 33 | 1.0 | 4.0 | 0.00 | 0.12 | 0.08 | 79 | 1014.3 |
| 20260506033304 | 50 | 32 | 1.0 | 4.0 | 0.00 | 0.12 | 0.08 | 79 | 1014.3 |
| 20260506033205 | 50 | 15 | 1.0 | 6.0 | 0.00 | 0.12 | 0.08 | 79 | 1014.3 |
| 20260506033105 | 50 | 17 | 1.0 | 6.0 | 0.00 | 0.12 | 0.08 | 79 | 1014.3 |
| 20260506033005 | 50 | 17 | 1.0 | 6.0 | 0.00 | 0.12 | 0.08 | 79 | 1014.3 |
| 20260506032905 | 50 | 21 | 1.0 | 6.0 | 0.00 | 0.12 | 0.08 | 79 | 1014.4 |
| 20260506032804 | 50 | 22 | 1.0 | 6.0 | 0.00 | 0.12 | 0.08 | 79 | 1014.4 |
| 20260506032704 | 50 | 22 | 2.0 | 6.0 | 0.00 | 0.12 | 0.08 | 79 | 1014.3 |
| 20260506032604 | 50 | 23 | 2.0 | 6.0 | 0.00 | 0.12 | 0.08 | 79 | 1014.2 |
| 20260506032504 | 50 | 22 | 2.0 | 6.0 | 0.00 | 0.12 | 0.08 | 79 | 1014.2 |
| 20260506032305 | 50 | 14 | 2.0 | 6.0 | 0.00 | 0.12 | 0.08 | 79 | 1014.2 |
| 20260506032205 | 50 | 14 | 2.0 | 6.0 | 0.00 | 0.12 | 0.08 | 79 | 1014.1 |
| 20260506032105 | 50 | 3 | 2.0 | 5.0 | 0.00 | 0.12 | 0.08 | 80 | 1014.2 |
| 20260506032004 | 50 | 353 | 2.0 | 5.0 | 0.00 | 0.12 | 0.08 | 80 | 1014.2 |
| 20260506031704 | 50 | 343 | 2.0 | 5.0 | 0.00 | 0.12 | 0.08 | 80 | 1014.2 |
| 20260506031605 | 50 | 344 | 2.0 | 5.0 | 0.00 | 0.12 | 0.08 | 80 | 1014.2 |
| 20260506031505 | 50 | 343 | 2.0 | 5.0 | 0.00 | 0.12 | 0.08 | 80 | 1014.1 |
| 20260506031405 | 50 | 346 | 2.0 | 5.0 | 0.00 | 0.12 | 0.08 | 80 | 1014.1 |
| 20260506031304 | 50 | 347 | 2.0 | 5.0 | 0.00 | 0.12 | 0.08 | 80 | 1014.1 |
| 20260506031104 | 50 | 6 | 2.0 | 5.0 | 0.00 | 0.12 | 0.08 | 80 | 1014.0 |
| 20260506031004 | 50 | 18 | 2.0 | 5.0 | 0.00 | 0.12 | 0.08 | 80 | 1013.9 |
| 20260506030905 | 50 | 25 | 2.0 | 6.0 | 0.00 | 0.12 | 0.08 | 79 | 1013.8 |
| 20260506030805 | 50 | 34 | 2.0 | 6.0 | 0.00 | 0.12 | 0.08 | 79 | 1013.6 |
| 20260506030705 | 50 | 37 | 2.0 | 6.0 | 0.00 | 0.12 | 0.08 | 79 | 1013.5 |
| 20260506030504 | 50 | 43 | 2.0 | 6.0 | 0.00 | 0.12 | 0.08 | 79 | 1013.3 |
| 20260506030404 | 50 | 42 | 2.0 | 6.0 | 0.00 | 0.12 | 0.08 | 79 | 1013.4 |
| 20260506030304 | 50 | 44 | 2.0 | 6.0 | 0.00 | 0.12 | 0.08 | 79 | 1013.4 |
| 20260506030205 | 50 | 44 | 2.0 | 6.0 | 0.00 | 0.12 | 0.08 | 79 | 1013.4 |
| 20260506030105 | 50 | 42 | 2.0 | 6.0 | 0.00 | 0.12 | 0.08 | 79 | 1013.4 |
| 20260506030005 | 50 | 40 | 1.0 | 7.0 | 0.00 | 0.12 | 0.08 | 79 | 1013.6 |
| 20260506025904 | 50 | 40 | 2.0 | 7.0 | 0.00 | 0.12 | 0.08 | 79 | 1013.7 |
| 20260506025805 | 50 | 36 | 2.0 | 7.0 | 0.00 | 0.12 | 0.08 | 79 | 1013.6 |
| 20260506025705 | 50 | 34 | 2.0 | 7.0 | 0.00 | 0.12 | 0.08 | 79 | 1013.7 |
| 20260506025604 | 50 | 32 | 2.0 | 7.0 | 0.00 | 0.12 | 0.08 | 79 | 1013.7 |
| 20260506025505 | 50 | 34 | 2.0 | 7.0 | 0.00 | 0.12 | 0.08 | 79 | 1013.8 |
| 20260506025405 | 50 | 35 | 2.0 | 7.0 | 0.00 | 0.12 | 0.08 | 79 | 1013.7 |
| 20260506025306 | 50 | 34 | 2.0 | 7.0 | 0.00 | 0.12 | 0.08 | 79 | 1013.8 |
| 20260506025105 | 50 | 33 | 2.0 | 7.0 | 0.00 | 0.12 | 0.08 | 79 | 1013.7 |
| 20260506025004 | 50 | 38 | 2.0 | 6.0 | 0.00 | 0.12 | 0.08 | 79 | 1013.7 |
| 20260506024904 | 50 | 37 | 2.0 | 6.0 | 0.00 | 0.12 | 0.08 | 79 | 1013.7 |
| 20260506024804 | 50 | 40 | 2.0 | 6.0 | 0.00 | 0.12 | 0.08 | 79 | 1013.6 |
| 20260506024704 | 50 | 39 | 2.0 | 6.0 | 0.00 | 0.12 | 0.08 | 79 | 1013.6 |
| 20260506024504 | 50 | 36 | 2.0 | 6.0 | 0.00 | 0.12 | 0.08 | 79 | 1013.6 |
| 20260506024405 | 50 | 27 | 2.0 | 6.0 | 0.00 | 0.12 | 0.08 | 79 | 1013.6 |
| 20260506024305 | 50 | 25 | 2.0 | 6.0 | 0.00 | 0.12 | 0.08 | 79 | 1013.7 |
| 20260506024204 | 50 | 25 | 2.0 | 6.0 | 0.00 | 0.12 | 0.08 | 79 | 1013.7 |
| 20260506024105 | 50 | 27 | 2.0 | 6.0 | 0.00 | 0.12 | 0.08 | 79 | 1013.7 |
| 20260506024004 | 50 | 23 | 2.0 | 6.0 | 0.00 | 0.12 | 0.08 | 79 | 1013.7 |
| 20260506023804 | 50 | 12 | 2.0 | 6.0 | 0.00 | 0.12 | 0.08 | 79 | 1013.7 |
| 20260506023705 | 50 | 6 | 2.0 | 6.0 | 0.00 | 0.12 | 0.08 | 79 | 1013.6 |
| 20260506023404 | 50 | 4 | 3.0 | 7.0 | 0.00 | 0.12 | 0.08 | 79 | 1013.6 |
| 20260506023205 | 50 | 349 | 3.0 | 7.0 | 0.00 | 0.12 | 0.08 | 79 | 1013.7 |
| 20260506023104 | 50 | 349 | 3.0 | 7.0 | 0.00 | 0.12 | 0.08 | 79 | 1013.7 |
| 20260506022904 | 50 | 345 | 3.0 | 7.0 | 0.00 | 0.12 | 0.08 | 80 | 1013.7 |
| 20260506022805 | 50 | 344 | 3.0 | 7.0 | 0.00 | 0.12 | 0.08 | 79 | 1013.8 |
| 20260506022705 | 50 | 340 | 3.0 | 7.0 | 0.00 | 0.12 | 0.08 | 79 | 1013.7 |
| 20260506022504 | 50 | 331 | 3.0 | 9.0 | 0.00 | 0.12 | 0.08 | 79 | 1013.7 |
| 20260506022404 | 50 | 333 | 3.0 | 9.0 | 0.00 | 0.12 | 0.08 | 79 | 1013.7 |
| 20260506022306 | 50 | 334 | 3.0 | 9.0 | 0.00 | 0.12 | 0.08 | 79 | 1013.8 |
| 20260506022204 | 50 | 336 | 3.0 | 9.0 | 0.00 | 0.12 | 0.08 | 79 | 1013.8 |
| 20260506022104 | 50 | 339 | 3.0 | 9.0 | 0.00 | 0.12 | 0.08 | 79 | 1013.9 |
| 20260506022005 | 50 | 342 | 3.0 | 9.0 | 0.00 | 0.12 | 0.08 | 78 | 1013.8 |
| 20260506021904 | 50 | 348 | 3.0 | 9.0 | 0.00 | 0.12 | 0.08 | 78 | 1013.8 |
| 20260506021804 | 50 | 350 | 3.0 | 9.0 | 0.00 | 0.12 | 0.08 | 78 | 1013.8 |
| 20260506021704 | 50 | 357 | 3.0 | 9.0 | 0.00 | 0.12 | 0.08 | 78 | 1013.8 |
| 20260506021604 | 50 | 359 | 3.0 | 7.0 | 0.00 | 0.12 | 0.08 | 78 | 1013.8 |
| 20260506021504 | 50 | 355 | 3.0 | 7.0 | 0.00 | 0.12 | 0.08 | 78 | 1013.7 |
| 20260506021304 | 50 | 354 | 3.0 | 7.0 | 0.00 | 0.12 | 0.08 | 78 | 1013.7 |
| 20260506021204 | 50 | 356 | 3.0 | 7.0 | 0.00 | 0.12 | 0.08 | 78 | 1013.7 |
| 20260506021104 | 50 | 353 | 3.0 | 6.0 | 0.00 | 0.12 | 0.08 | 78 | 1013.7 |
| 20260506021005 | 50 | 348 | 3.0 | 6.0 | 0.00 | 0.12 | 0.08 | 78 | 1013.7 |
| 20260506020809 | 50 | 342 | 3.0 | 6.0 | 0.00 | 0.12 | 0.08 | 79 | 1013.7 |
| 20260506020705 | 50 | 334 | 3.0 | 6.0 | 0.00 | 0.12 | 0.08 | 79 | 1013.6 |
| 20260506020605 | 50 | 332 | 3.0 | 6.0 | 0.00 | 0.12 | 0.08 | 79 | 1013.6 |
| 20260506020504 | 50 | 334 | 3.0 | 6.0 | 0.00 | 0.12 | 0.08 | 79 | 1013.6 |
| 20260506020405 | 50 | 335 | 3.0 | 6.0 | 0.00 | 0.12 | 0.08 | 78 | 1013.5 |
| 20260506020305 | 50 | 336 | 3.0 | 6.0 | 0.00 | 0.12 | 0.08 | 78 | 1013.5 |
| 20260506020204 | 50 | 335 | 3.0 | 6.0 | 0.00 | 0.12 | 0.08 | 78 | 1013.5 |
| 20260506020104 | 50 | 333 | 3.0 | 6.0 | 0.00 | 0.12 | 0.08 | 78 | 1013.5 |
| 20260506020005 | 50 | 336 | 3.0 | 6.0 | 0.00 | 0.12 | 0.08 | 78 | 1013.6 |
| 20260506015904 | 50 | 333 | 3.0 | 6.0 | 0.00 | 0.12 | 0.08 | 78 | 1013.6 |
| 20260506015804 | 50 | 331 | 3.0 | 6.0 | 0.00 | 0.12 | 0.08 | 77 | 1013.7 |
| 20260506015605 | 50 | 342 | 3.0 | 6.0 | 0.00 | 0.12 | 0.08 | 77 | 1013.5 |
| 20260506015505 | 50 | 341 | 2.0 | 5.0 | 0.00 | 0.12 | 0.08 | 77 | 1013.5 |
| 20260506015404 | 50 | 337 | 2.0 | 5.0 | 0.00 | 0.12 | 0.08 | 77 | 1013.5 |
| 20260506015306 | 50 | 335 | 2.0 | 4.0 | 0.00 | 0.12 | 0.08 | 76 | 1013.5 |
| 20260506015204 | 50 | 337 | 2.0 | 4.0 | 0.00 | 0.12 | 0.08 | 76 | 1013.5 |
| 20260506015105 | 50 | 336 | 2.0 | 4.0 | 0.00 | 0.12 | 0.08 | 76 | 1013.5 |
| 20260506015004 | 50 | 338 | 2.0 | 4.0 | 0.00 | 0.12 | 0.08 | 76 | 1013.5 |
| 20260506014904 | 50 | 349 | 2.0 | 4.0 | 0.00 | 0.12 | 0.08 | 76 | 1013.5 |
| 20260506014705 | 50 | 6 | 2.0 | 7.0 | 0.00 | 0.12 | 0.08 | 75 | 1013.4 |
| 20260506014605 | 50 | 9 | 2.0 | 7.0 | 0.00 | 0.12 | 0.08 | 75 | 1013.4 |
| 20260506014504 | 50 | 16 | 2.0 | 7.0 | 0.00 | 0.12 | 0.08 | 75 | 1013.4 |
| 20260506014404 | 50 | 24 | 2.0 | 7.0 | 0.00 | 0.12 | 0.08 | 74 | 1013.3 |
| 20260506014304 | 50 | 30 | 2.0 | 7.0 | 0.00 | 0.12 | 0.08 | 74 | 1013.2 |
| 20260506014204 | 50 | 33 | 2.0 | 7.0 | 0.00 | 0.12 | 0.08 | 74 | 1013.2 |
| 20260506014104 | 50 | 40 | 2.0 | 7.0 | 0.00 | 0.12 | 0.08 | 74 | 1013.1 |
| 20260506014004 | 50 | 41 | 2.0 | 7.0 | 0.00 | 0.12 | 0.08 | 73 | 1013.0 |
| 20260506013905 | 50 | 45 | 1.0 | 7.0 | 0.00 | 0.12 | 0.08 | 73 | 1013.0 |
| 20260506013704 | 50 | 50 | 1.0 | 4.0 | 0.00 | 0.12 | 0.08 | 73 | 1013.0 |
| 20260506013405 | 50 | 40 | 2.0 | 5.0 | 0.00 | 0.12 | 0.08 | 73 | 1013.0 |
| 20260506013305 | 50 | 33 | 2.0 | 6.0 | 0.00 | 0.12 | 0.08 | 72 | 1012.9 |
| 20260506013205 | 50 | 29 | 2.0 | 6.0 | 0.00 | 0.12 | 0.08 | 72 | 1012.9 |
| 20260506013105 | 50 | 26 | 2.0 | 7.0 | 0.00 | 0.12 | 0.08 | 72 | 1013.0 |
| 20260506012905 | 51 | 18 | 2.0 | 7.0 | 0.00 | 0.12 | 0.08 | 72 | 1012.9 |
| 20260506012805 | 51 | 16 | 2.0 | 7.0 | 0.00 | 0.12 | 0.08 | 72 | 1012.9 |
| 20260506012705 | 51 | 19 | 2.0 | 7.0 | 0.00 | 0.12 | 0.08 | 72 | 1012.9 |
| 20260506012604 | 51 | 16 | 2.0 | 7.0 | 0.00 | 0.12 | 0.08 | 72 | 1013.0 |
| 20260506012308 | 51 | 18 | 2.0 | 7.0 | 0.00 | 0.12 | 0.08 | 71 | 1012.9 |
| 20260506012205 | 51 | 23 | 2.0 | 7.0 | 0.00 | 0.12 | 0.08 | 71 | 1012.9 |
| 20260506012005 | 51 | 24 | 2.0 | 7.0 | 0.00 | 0.12 | 0.08 | 70 | 1012.9 |
| 20260506011905 | 51 | 27 | 2.0 | 7.0 | 0.00 | 0.12 | 0.08 | 70 | 1012.8 |
| 20260506011705 | 51 | 31 | 2.0 | 7.0 | 0.00 | 0.12 | 0.08 | 70 | 1012.8 |
| 20260506011605 | 51 | 38 | 2.0 | 7.0 | 0.00 | 0.12 | 0.08 | 69 | 1012.8 |
| 20260506011505 | 51 | 40 | 2.0 | 7.0 | 0.00 | 0.12 | 0.08 | 69 | 1012.7 |
| 20260506011405 | 51 | 43 | 2.0 | 7.0 | 0.00 | 0.12 | 0.08 | 68 | 1012.7 |
| 20260506011204 | 52 | 48 | 1.0 | 7.0 | 0.00 | 0.12 | 0.08 | 68 | 1012.7 |
| 20260506011105 | 52 | 59 | 1.0 | 7.0 | 0.00 | 0.12 | 0.08 | 68 | 1012.6 |
| 20260506011005 | 52 | 69 | 1.0 | 5.0 | 0.00 | 0.12 | 0.08 | 67 | 1012.5 |
| 20260506010905 | 52 | 75 | 1.0 | 9.0 | 0.00 | 0.12 | 0.08 | 67 | 1012.5 |
| 20260506010604 | 52 | 63 | 2.0 | 9.0 | 0.00 | 0.12 | 0.08 | 67 | 1012.5 |
| 20260506010504 | 52 | 63 | 2.0 | 9.0 | 0.00 | 0.12 | 0.08 | 66 | 1012.6 |
| 20260506010405 | 52 | 53 | 2.0 | 9.0 | 0.00 | 0.12 | 0.08 | 66 | 1012.6 |
| 20260506010305 | 52 | 55 | 2.0 | 9.0 | 0.00 | 0.12 | 0.08 | 66 | 1012.6 |
| 20260506010205 | 52 | 52 | 2.0 | 9.0 | 0.00 | 0.12 | 0.08 | 66 | 1012.6 |
| 20260506010005 | 52 | 54 | 2.0 | 9.0 | 0.00 | 0.12 | 0.08 | 66 | 1012.7 |
| 20260506005804 | 52 | 60 | 2.0 | 11.0 | 0.00 | 0.12 | 0.08 | 65 | 1012.7 |
| 20260506005705 | 52 | 62 | 2.0 | 11.0 | 0.00 | 0.12 | 0.08 | 65 | 1012.7 |
| 20260506005505 | 52 | 51 | 3.0 | 11.0 | 0.00 | 0.12 | 0.08 | 65 | 1012.7 |
| 20260506005405 | 52 | 56 | 3.0 | 11.0 | 0.00 | 0.12 | 0.08 | 65 | 1012.6 |
| 20260506005306 | 52 | 52 | 3.0 | 11.0 | 0.00 | 0.12 | 0.08 | 64 | 1012.6 |
| 20260506005004 | 52 | 44 | 2.0 | 11.0 | 0.00 | 0.12 | 0.08 | 64 | 1012.5 |
| 20260506004905 | 52 | 32 | 3.0 | 9.0 | 0.00 | 0.12 | 0.08 | 64 | 1012.5 |
| 20260506004805 | 52 | 25 | 3.0 | 9.0 | 0.00 | 0.12 | 0.08 | 64 | 1012.5 |
| 20260506004705 | 52 | 22 | 3.0 | 9.0 | 0.00 | 0.12 | 0.08 | 64 | 1012.5 |
| 20260506004405 | 52 | 31 | 3.0 | 9.0 | 0.00 | 0.12 | 0.08 | 64 | 1012.3 |
| 20260506004205 | 52 | 33 | 3.0 | 8.0 | 0.00 | 0.12 | 0.08 | 65 | 1012.4 |
| 20260506004105 | 52 | 36 | 3.0 | 8.0 | 0.00 | 0.12 | 0.08 | 64 | 1012.3 |
| 20260506004005 | 52 | 44 | 3.0 | 11.0 | 0.00 | 0.12 | 0.08 | 64 | 1012.3 |
| 20260506003905 | 52 | 43 | 3.0 | 11.0 | 0.00 | 0.12 | 0.08 | 64 | 1012.3 |
| 20260506003805 | 52 | 52 | 2.0 | 11.0 | 0.00 | 0.12 | 0.08 | 64 | 1012.3 |
| 20260506003705 | 52 | 55 | 2.0 | 11.0 | 0.00 | 0.12 | 0.08 | 64 | 1012.4 |
| 20260506003605 | 52 | 61 | 2.0 | 11.0 | 0.00 | 0.12 | 0.08 | 64 | 1012.3 |
| 20260506003504 | 52 | 62 | 2.0 | 11.0 | 0.00 | 0.12 | 0.08 | 64 | 1012.3 |
| 20260506003305 | 52 | 73 | 2.0 | 11.0 | 0.00 | 0.12 | 0.08 | 65 | 1012.3 |
| 20260506003205 | 52 | 72 | 2.0 | 11.0 | 0.00 | 0.12 | 0.08 | 65 | 1012.2 |
| 20260506003105 | 52 | 63 | 2.0 | 11.0 | 0.00 | 0.12 | 0.08 | 65 | 1012.2 |
| 20260506003005 | 52 | 54 | 2.0 | 10.0 | 0.00 | 0.12 | 0.08 | 66 | 1012.2 |
| 20260506002905 | 52 | 66 | 2.0 | 7.0 | 0.00 | 0.12 | 0.08 | 68 | 1012.2 |
| 20260506002505 | 52 | 61 | 2.0 | 7.0 | 0.00 | 0.12 | 0.08 | 67 | 1012.2 |
| 20260506002405 | 52 | 63 | 2.0 | 7.0 | 0.00 | 0.12 | 0.08 | 67 | 1012.2 |
| 20260506002104 | 52 | 64 | 2.0 | 7.0 | 0.00 | 0.12 | 0.08 | 68 | 1012.1 |
| 20260506002004 | 52 | 58 | 2.0 | 7.0 | 0.00 | 0.12 | 0.08 | 68 | 1012.2 |
| 20260506001905 | 52 | 57 | 2.0 | 9.0 | 0.00 | 0.12 | 0.08 | 69 | 1012.1 |
| 20260506001605 | 52 | 39 | 3.0 | 10.0 | 0.00 | 0.12 | 0.08 | 68 | 1011.9 |
| 20260506001505 | 52 | 37 | 3.0 | 10.0 | 0.00 | 0.12 | 0.08 | 68 | 1011.9 |
| 20260506001405 | 52 | 36 | 3.0 | 10.0 | 0.00 | 0.12 | 0.08 | 68 | 1011.9 |
| 20260506001205 | 53 | 37 | 3.0 | 10.0 | 0.00 | 0.12 | 0.08 | 67 | 1011.9 |
| 20260506001105 | 53 | 37 | 3.0 | 10.0 | 0.00 | 0.12 | 0.08 | 68 | 1011.9 |
| 20260506000804 | 53 | 32 | 3.0 | 10.0 | 0.00 | 0.12 | 0.08 | 68 | 1011.8 |
| 20260506000705 | 53 | 24 | 3.0 | 10.0 | 0.00 | 0.12 | 0.08 | 68 | 1011.8 |
| 20260506000605 | 53 | 30 | 3.0 | 10.0 | 0.00 | 0.12 | 0.08 | 68 | 1011.8 |
| 20260506000505 | 53 | 30 | 3.0 | 10.0 | 0.00 | 0.12 | 0.08 | 68 | 1011.8 |
| 20260506000405 | 53 | 29 | 3.0 | 10.0 | 0.00 | 0.12 | 0.08 | 68 | 1011.8 |
| 20260506000105 | 53 | 40 | 3.0 | 10.0 | 0.00 | 0.12 | 0.08 | 67 | 1011.8 |
| 20260505235805 | 53 | 48 | 2.0 | 10.0 | 0.00 | 0.12 | 0.08 | 68 | 1011.8 |
| 20260505235705 | 53 | 54 | 2.0 | 9.0 | 0.00 | 0.12 | 0.08 | 68 | 1011.7 |
| 20260505235604 | 53 | 54 | 2.0 | 9.0 | 0.00 | 0.12 | 0.08 | 68 | 1011.7 |
| 20260505235505 | 53 | 57 | 3.0 | 9.0 | 0.00 | 0.12 | 0.08 | 68 | 1011.7 |
| 20260505235405 | 53 | 57 | 2.0 | 9.0 | 0.00 | 0.12 | 0.08 | 67 | 1011.7 |
| 20260505235305 | 53 | 54 | 2.0 | 9.0 | 0.00 | 0.12 | 0.08 | 68 | 1011.8 |
| 20260505235205 | 53 | 53 | 2.0 | 9.0 | 0.00 | 0.12 | 0.08 | 67 | 1011.8 |
| 20260505235105 | 53 | 53 | 2.0 | 9.0 | 0.00 | 0.12 | 0.08 | 67 | 1011.9 |
| 20260505235005 | 53 | 52 | 2.0 | 9.0 | 0.00 | 0.12 | 0.08 | 68 | 1011.9 |
| 20260505234905 | 53 | 57 | 2.0 | 7.0 | 0.00 | 0.12 | 0.08 | 68 | 1011.9 |
| 20260505234705 | 53 | 74 | 2.0 | 7.0 | 0.00 | 0.12 | 0.08 | 69 | 1011.9 |
| 20260505234604 | 53 | 75 | 2.0 | 7.0 | 0.00 | 0.12 | 0.08 | 69 | 1011.9 |
| 20260505234504 | 53 | 76 | 2.0 | 7.0 | 0.00 | 0.12 | 0.08 | 69 | 1011.9 |
| 20260505234405 | 53 | 81 | 2.0 | 7.0 | 0.00 | 0.12 | 0.08 | 69 | 1011.9 |
| 20260505234305 | 53 | 76 | 2.0 | 7.0 | 0.00 | 0.12 | 0.08 | 70 | 1011.8 |
| 20260505234205 | 53 | 76 | 2.0 | 7.0 | 0.00 | 0.12 | 0.08 | 69 | 1011.8 |
| 20260505234105 | 53 | 75 | 2.0 | 7.0 | 0.00 | 0.12 | 0.08 | 69 | 1011.8 |
| 20260505233905 | 53 | 76 | 2.0 | 7.0 | 0.00 | 0.12 | 0.08 | 69 | 1011.8 |
| 20260505233804 | 53 | 72 | 2.0 | 11.0 | 0.00 | 0.12 | 0.08 | 69 | 1011.7 |
| 20260505233704 | 53 | 71 | 2.0 | 11.0 | 0.00 | 0.12 | 0.08 | 70 | 1011.7 |
| 20260505233605 | 53 | 71 | 2.0 | 11.0 | 0.00 | 0.12 | 0.08 | 69 | 1011.7 |
| 20260505233505 | 53 | 72 | 3.0 | 11.0 | 0.00 | 0.12 | 0.08 | 69 | 1011.8 |
| 20260505233405 | 53 | 72 | 3.0 | 11.0 | 0.00 | 0.12 | 0.08 | 69 | 1011.7 |
| 20260505233305 | 53 | 75 | 3.0 | 11.0 | 0.00 | 0.12 | 0.08 | 69 | 1011.7 |
| 20260505233104 | 53 | 75 | 3.0 | 11.0 | 0.00 | 0.12 | 0.08 | 69 | 1011.8 |
| 20260505233005 | 53 | 74 | 3.0 | 11.0 | 0.00 | 0.12 | 0.08 | 68 | 1011.8 |
| 20260505232905 | 53 | 73 | 2.0 | 11.0 | 0.00 | 0.12 | 0.08 | 69 | 1011.8 |
| 20260505232605 | 53 | 75 | 2.0 | 9.0 | 0.00 | 0.12 | 0.08 | 69 | 1011.9 |
| 20260505232404 | 53 | 66 | 2.0 | 9.0 | 0.00 | 0.12 | 0.08 | 69 | 1011.9 |
| 20260505232305 | 53 | 63 | 2.0 | 9.0 | 0.00 | 0.12 | 0.08 | 69 | 1011.9 |
| 20260505232204 | 53 | 70 | 2.0 | 9.0 | 0.00 | 0.12 | 0.08 | 69 | 1011.9 |
| 20260505232105 | 53 | 65 | 3.0 | 9.0 | 0.00 | 0.12 | 0.08 | 69 | 1011.9 |
| 20260505232005 | 53 | 69 | 3.0 | 11.0 | 0.00 | 0.12 | 0.08 | 69 | 1011.8 |
| 20260505231905 | 53 | 71 | 3.0 | 12.0 | 0.00 | 0.12 | 0.08 | 69 | 1011.8 |
| 20260505231805 | 53 | 71 | 3.0 | 12.0 | 0.00 | 0.12 | 0.08 | 69 | 1011.8 |
| 20260505231705 | 53 | 72 | 3.0 | 12.0 | 0.00 | 0.12 | 0.08 | 69 | 1011.7 |
| 20260505231604 | 53 | 72 | 4.0 | 12.0 | 0.00 | 0.12 | 0.08 | 69 | 1011.7 |
| 20260505231505 | 53 | 73 | 4.0 | 12.0 | 0.00 | 0.12 | 0.08 | 68 | 1011.6 |
| 20260505231405 | 53 | 78 | 4.0 | 12.0 | 0.00 | 0.12 | 0.08 | 69 | 1011.6 |
| 20260505231305 | 53 | 79 | 4.0 | 12.0 | 0.00 | 0.12 | 0.08 | 69 | 1011.7 |
| 20260505231205 | 53 | 80 | 4.0 | 12.0 | 0.00 | 0.12 | 0.08 | 68 | 1011.6 |
| 20260505231105 | 53 | 82 | 4.0 | 12.0 | 0.00 | 0.12 | 0.08 | 68 | 1011.6 |
| 20260505231005 | 53 | 82 | 3.0 | 12.0 | 0.00 | 0.12 | 0.08 | 68 | 1011.5 |
| 20260505230905 | 53 | 82 | 3.0 | 10.0 | 0.00 | 0.12 | 0.08 | 69 | 1011.5 |
| 20260505230804 | 53 | 83 | 4.0 | 10.0 | 0.00 | 0.12 | 0.08 | 68 | 1011.5 |
| 20260505230705 | 53 | 85 | 3.0 | 10.0 | 0.00 | 0.12 | 0.08 | 68 | 1011.5 |
| 20260505230604 | 53 | 87 | 3.0 | 10.0 | 0.00 | 0.12 | 0.08 | 68 | 1011.5 |
| 20260505230505 | 53 | 87 | 3.0 | 10.0 | 0.00 | 0.12 | 0.08 | 68 | 1011.5 |
| 20260505230405 | 53 | 86 | 3.0 | 10.0 | 0.00 | 0.12 | 0.08 | 68 | 1011.6 |
| 20260505230305 | 53 | 87 | 2.0 | 10.0 | 0.00 | 0.12 | 0.08 | 68 | 1011.5 |
| 20260505230105 | 53 | 76 | 3.0 | 10.0 | 0.00 | 0.12 | 0.08 | 68 | 1011.5 |
| 20260505225904 | 53 | 70 | 3.0 | 10.0 | 0.00 | 0.12 | 0.08 | 68 | 1011.6 |
| 20260505225705 | 53 | 66 | 3.0 | 10.0 | 0.00 | 0.12 | 0.08 | 68 | 1011.6 |
| 20260505225604 | 53 | 63 | 3.0 | 8.0 | 0.00 | 0.12 | 0.08 | 68 | 1011.6 |
| 20260505225505 | 53 | 65 | 3.0 | 10.0 | 0.00 | 0.12 | 0.08 | 68 | 1011.6 |
| 20260505225405 | 53 | 62 | 3.0 | 10.0 | 0.00 | 0.12 | 0.08 | 68 | 1011.6 |
| 20260505225306 | 53 | 58 | 3.0 | 10.0 | 0.00 | 0.12 | 0.08 | 68 | 1011.6 |
| 20260505225205 | 53 | 63 | 3.0 | 10.0 | 0.00 | 0.12 | 0.08 | 68 | 1011.6 |
| 20260505225005 | 53 | 66 | 3.0 | 10.0 | 0.00 | 0.12 | 0.08 | 68 | 1011.6 |
| 20260505224705 | 53 | 60 | 3.0 | 16.0 | 0.00 | 0.12 | 0.08 | 68 | 1011.7 |
| 20260505224604 | 53 | 60 | 4.0 | 16.0 | 0.00 | 0.12 | 0.08 | 68 | 1011.7 |
| 20260505224404 | 53 | 63 | 3.0 | 16.0 | 0.00 | 0.12 | 0.08 | 68 | 1011.6 |
| 20260505224305 | 53 | 65 | 3.0 | 16.0 | 0.00 | 0.12 | 0.08 | 67 | 1011.7 |
| 20260505224205 | 53 | 66 | 3.0 | 16.0 | 0.00 | 0.12 | 0.08 | 67 | 1011.6 |
| 20260505224105 | 53 | 69 | 3.0 | 16.0 | 0.00 | 0.12 | 0.08 | 67 | 1011.7 |
| 20260505224005 | 53 | 68 | 3.0 | 16.0 | 0.00 | 0.12 | 0.08 | 67 | 1011.6 |
| 20260505223905 | 53 | 70 | 2.0 | 16.0 | 0.00 | 0.12 | 0.08 | 67 | 1011.6 |
| 20260505223805 | 53 | 69 | 2.0 | 16.0 | 0.00 | 0.12 | 0.08 | 67 | 1011.5 |
| 20260505223604 | 53 | 75 | 2.0 | 15.0 | 0.00 | 0.12 | 0.08 | 68 | 1011.5 |
| 20260505223505 | 53 | 73 | 3.0 | 11.0 | 0.00 | 0.12 | 0.08 | 68 | 1011.5 |
| 20260505223405 | 53 | 74 | 3.0 | 11.0 | 0.00 | 0.12 | 0.08 | 68 | 1011.5 |
| 20260505223305 | 53 | 76 | 3.0 | 11.0 | 0.00 | 0.12 | 0.08 | 68 | 1011.5 |
| 20260505223205 | 53 | 75 | 3.0 | 11.0 | 0.00 | 0.12 | 0.08 | 67 | 1011.5 |
| 20260505223104 | 53 | 76 | 3.0 | 11.0 | 0.00 | 0.12 | 0.08 | 68 | 1011.6 |
| 20260505223004 | 53 | 76 | 3.0 | 11.0 | 0.00 | 0.12 | 0.08 | 68 | 1011.5 |
| 20260505222805 | 53 | 68 | 3.0 | 11.0 | 0.00 | 0.12 | 0.08 | 67 | 1011.5 |
| 20260505222705 | 53 | 67 | 3.0 | 11.0 | 0.00 | 0.12 | 0.08 | 66 | 1011.5 |
| 20260505222605 | 53 | 65 | 3.0 | 9.0 | 0.00 | 0.12 | 0.08 | 67 | 1011.4 |
| 20260505222405 | 53 | 58 | 3.0 | 9.0 | 0.00 | 0.12 | 0.08 | 68 | 1011.4 |
| 20260505222306 | 53 | 55 | 3.0 | 9.0 | 0.00 | 0.12 | 0.08 | 68 | 1011.4 |
| 20260505222205 | 53 | 57 | 4.0 | 11.0 | 0.00 | 0.12 | 0.08 | 68 | 1011.5 |
| 20260505222104 | 53 | 53 | 4.0 | 12.0 | 0.00 | 0.12 | 0.08 | 67 | 1011.5 |
| 20260505222004 | 53 | 50 | 4.0 | 12.0 | 0.00 | 0.12 | 0.08 | 67 | 1011.5 |
| 20260505221905 | 53 | 53 | 4.0 | 12.0 | 0.00 | 0.12 | 0.08 | 67 | 1011.5 |
| 20260505221805 | 53 | 54 | 4.0 | 12.0 | 0.00 | 0.12 | 0.08 | 67 | 1011.6 |
| 20260505221705 | 52 | 56 | 4.0 | 12.0 | 0.00 | 0.12 | 0.08 | 67 | 1011.7 |
| 20260505221605 | 52 | 54 | 5.0 | 12.0 | 0.00 | 0.12 | 0.08 | 67 | 1011.7 |
| 20260505221505 | 52 | 57 | 5.0 | 12.0 | 0.00 | 0.12 | 0.08 | 67 | 1011.8 |
| 20260505221404 | 52 | 63 | 5.0 | 14.0 | 0.00 | 0.12 | 0.08 | 67 | 1011.8 |
| 20260505221304 | 52 | 65 | 5.0 | 14.0 | 0.00 | 0.12 | 0.08 | 66 | 1011.8 |
| 20260505221004 | 52 | 62 | 5.0 | 14.0 | 0.00 | 0.12 | 0.08 | 66 | 1011.7 |
| 20260505220905 | 52 | 62 | 6.0 | 14.0 | 0.00 | 0.12 | 0.08 | 67 | 1011.7 |
| 20260505220805 | 52 | 60 | 6.0 | 14.0 | 0.00 | 0.12 | 0.08 | 66 | 1011.7 |
| 20260505220605 | 52 | 57 | 5.0 | 14.0 | 0.00 | 0.12 | 0.08 | 66 | 1011.8 |
| 20260505220505 | 53 | 54 | 5.0 | 14.0 | 0.00 | 0.12 | 0.08 | 66 | 1011.8 |
| 20260505220404 | 53 | 49 | 5.0 | 13.0 | 0.00 | 0.12 | 0.08 | 66 | 1011.7 |
| 20260505220304 | 53 | 51 | 5.0 | 13.0 | 0.00 | 0.12 | 0.08 | 65 | 1011.7 |
| 20260505220204 | 53 | 49 | 5.0 | 13.0 | 0.00 | 0.12 | 0.08 | 66 | 1011.8 |
| 20260505220104 | 53 | 49 | 5.0 | 13.0 | 0.00 | 0.12 | 0.08 | 66 | 1011.8 |
| 20260505220005 | 53 | 52 | 5.0 | 13.0 | 0.00 | 0.12 | 0.08 | 66 | 1012.0 |
| 20260505215905 | 53 | 51 | 5.0 | 13.0 | 0.00 | 0.12 | 0.08 | 66 | 1012.0 |
| 20260505215604 | 53 | 59 | 5.0 | 12.0 | 0.00 | 0.12 | 0.08 | 66 | 1012.0 |
| 20260505215505 | 53 | 59 | 5.0 | 12.0 | 0.00 | 0.12 | 0.08 | 65 | 1012.0 |
| 20260505215405 | 53 | 56 | 5.0 | 12.0 | 0.00 | 0.12 | 0.08 | 65 | 1012.1 |
| 20260505215305 | 53 | 53 | 5.0 | 12.0 | 0.00 | 0.12 | 0.08 | 66 | 1012.1 |
| 20260505215205 | 53 | 54 | 4.0 | 12.0 | 0.00 | 0.12 | 0.08 | 65 | 1012.1 |
| 20260505215105 | 53 | 56 | 4.0 | 12.0 | 0.00 | 0.12 | 0.08 | 66 | 1012.2 |
| 20260505215005 | 53 | 55 | 4.0 | 12.0 | 0.00 | 0.12 | 0.08 | 66 | 1012.1 |
| 20260505214904 | 52 | 57 | 4.0 | 12.0 | 0.00 | 0.12 | 0.08 | 66 | 1012.2 |
| 20260505214805 | 52 | 53 | 4.0 | 12.0 | 0.00 | 0.12 | 0.08 | 66 | 1012.2 |
| 20260505214705 | 52 | 57 | 4.0 | 12.0 | 0.00 | 0.12 | 0.08 | 66 | 1012.2 |
| 20260505214605 | 52 | 55 | 4.0 | 12.0 | 0.00 | 0.12 | 0.08 | 65 | 1012.2 |
| 20260505214505 | 52 | 55 | 4.0 | 12.0 | 0.00 | 0.12 | 0.08 | 66 | 1012.1 |
| 20260505214405 | 52 | 59 | 4.0 | 12.0 | 0.00 | 0.12 | 0.08 | 66 | 1012.2 |
| 20260505214304 | 52 | 60 | 4.0 | 11.0 | 0.00 | 0.12 | 0.08 | 66 | 1012.1 |
| 20260505214204 | 52 | 58 | 4.0 | 12.0 | 0.00 | 0.12 | 0.08 | 66 | 1012.1 |
| 20260505214104 | 52 | 62 | 5.0 | 12.0 | 0.00 | 0.12 | 0.08 | 66 | 1012.1 |
| 20260505214005 | 52 | 55 | 5.0 | 12.0 | 0.00 | 0.12 | 0.08 | 65 | 1012.2 |
| 20260505213905 | 52 | 50 | 5.0 | 12.0 | 0.00 | 0.12 | 0.08 | 66 | 1012.2 |
| 20260505213805 | 52 | 52 | 5.0 | 12.0 | 0.00 | 0.12 | 0.08 | 65 | 1012.2 |
| 20260505213705 | 52 | 45 | 5.0 | 12.0 | 0.00 | 0.12 | 0.08 | 65 | 1012.3 |
| 20260505213505 | 52 | 48 | 5.0 | 12.0 | 0.00 | 0.12 | 0.08 | 66 | 1012.3 |
| 20260505213304 | 52 | 48 | 5.0 | 12.0 | 0.00 | 0.12 | 0.08 | 64 | 1012.3 |
| 20260505213205 | 52 | 53 | 5.0 | 12.0 | 0.00 | 0.12 | 0.08 | 65 | 1012.4 |
| 20260505213005 | 52 | 59 | 5.0 | 9.0 | 0.00 | 0.12 | 0.08 | 65 | 1012.5 |
| 20260505212904 | 52 | 64 | 5.0 | 11.0 | 0.00 | 0.12 | 0.08 | 65 | 1012.4 |
| 20260505212804 | 52 | 66 | 5.0 | 12.0 | 0.00 | 0.12 | 0.08 | 66 | 1012.4 |
| 20260505212704 | 52 | 71 | 5.0 | 12.0 | 0.00 | 0.12 | 0.08 | 65 | 1012.4 |
| 20260505212605 | 52 | 72 | 5.0 | 12.0 | 0.00 | 0.12 | 0.08 | 66 | 1012.4 |
| 20260505212505 | 52 | 72 | 5.0 | 12.0 | 0.00 | 0.12 | 0.08 | 66 | 1012.4 |
| 20260505212405 | 52 | 76 | 5.0 | 15.0 | 0.00 | 0.12 | 0.08 | 66 | 1012.4 |
| 20260505212306 | 52 | 73 | 5.0 | 15.0 | 0.00 | 0.12 | 0.08 | 67 | 1012.3 |
| 20260505212204 | 52 | 73 | 5.0 | 15.0 | 0.00 | 0.12 | 0.08 | 66 | 1012.4 |
| 20260505212105 | 52 | 72 | 5.0 | 15.0 | 0.00 | 0.12 | 0.08 | 66 | 1012.4 |
| 20260505212005 | 52 | 74 | 5.0 | 15.0 | 0.00 | 0.12 | 0.08 | 66 | 1012.4 |
| 20260505211905 | 52 | 72 | 5.0 | 15.0 | 0.00 | 0.12 | 0.08 | 66 | 1012.4 |
| 20260505211805 | 52 | 71 | 4.0 | 15.0 | 0.00 | 0.12 | 0.08 | 66 | 1012.4 |
| 20260505211705 | 52 | 73 | 4.0 | 15.0 | 0.00 | 0.12 | 0.08 | 66 | 1012.4 |
| 20260505211504 | 52 | 72 | 3.0 | 15.0 | 0.00 | 0.12 | 0.08 | 67 | 1012.3 |
| 20260505211405 | 52 | 66 | 4.0 | 14.0 | 0.00 | 0.12 | 0.08 | 67 | 1012.3 |
| 20260505211304 | 52 | 69 | 4.0 | 14.0 | 0.00 | 0.12 | 0.08 | 67 | 1012.4 |
| 20260505211205 | 52 | 69 | 4.0 | 14.0 | 0.00 | 0.12 | 0.08 | 66 | 1012.4 |
| 20260505211105 | 52 | 66 | 3.0 | 14.0 | 0.00 | 0.12 | 0.08 | 66 | 1012.4 |
| 20260505211005 | 52 | 66 | 4.0 | 12.0 | 0.00 | 0.12 | 0.08 | 67 | 1012.4 |
| 20260505210905 | 52 | 64 | 4.0 | 12.0 | 0.00 | 0.12 | 0.08 | 67 | 1012.4 |
| 20260505210705 | 52 | 64 | 4.0 | 12.0 | 0.00 | 0.12 | 0.08 | 67 | 1012.5 |
| 20260505210604 | 52 | 64 | 5.0 | 12.0 | 0.00 | 0.12 | 0.08 | 67 | 1012.5 |
| 20260505210504 | 52 | 59 | 5.0 | 12.0 | 0.00 | 0.12 | 0.08 | 66 | 1012.6 |
| 20260505210404 | 52 | 59 | 4.0 | 12.0 | 0.00 | 0.12 | 0.08 | 67 | 1012.5 |
| 20260505210304 | 52 | 62 | 5.0 | 12.0 | 0.00 | 0.12 | 0.08 | 67 | 1012.5 |
| 20260505210204 | 52 | 57 | 5.0 | 16.0 | 0.00 | 0.12 | 0.08 | 67 | 1012.5 |
| 20260505210105 | 52 | 55 | 5.0 | 16.0 | 0.00 | 0.12 | 0.08 | 68 | 1012.4 |
| 20260505210005 | 52 | 54 | 5.0 | 16.0 | 0.00 | 0.12 | 0.08 | 68 | 1012.5 |
| 20260505205905 | 52 | 56 | 5.0 | 16.0 | 0.00 | 0.12 | 0.08 | 67 | 1012.5 |
| 20260505205805 | 52 | 56 | 5.0 | 16.0 | 0.00 | 0.12 | 0.08 | 67 | 1012.5 |
| 20260505205705 | 52 | 57 | 5.0 | 16.0 | 0.00 | 0.12 | 0.08 | 67 | 1012.4 |
| 20260505205605 | 52 | 56 | 5.0 | 16.0 | 0.00 | 0.12 | 0.08 | 67 | 1012.4 |
| 20260505205505 | 52 | 56 | 5.0 | 16.0 | 0.00 | 0.12 | 0.08 | 68 | 1012.4 |
| 20260505205404 | 52 | 57 | 4.0 | 16.0 | 0.00 | 0.12 | 0.08 | 68 | 1012.4 |
| 20260505205305 | 52 | 55 | 4.0 | 16.0 | 0.00 | 0.12 | 0.08 | 68 | 1012.4 |
| 20260505205204 | 52 | 61 | 4.0 | 14.0 | 0.00 | 0.12 | 0.08 | 69 | 1012.4 |
| 20260505205005 | 52 | 68 | 4.0 | 14.0 | 0.00 | 0.12 | 0.08 | 69 | 1012.4 |
| 20260505204905 | 52 | 70 | 4.0 | 14.0 | 0.00 | 0.12 | 0.08 | 69 | 1012.4 |
| 20260505204805 | 52 | 70 | 3.0 | 14.0 | 0.00 | 0.12 | 0.08 | 68 | 1012.4 |
| 20260505204705 | 52 | 67 | 3.0 | 14.0 | 0.00 | 0.12 | 0.08 | 69 | 1012.4 |
| 20260505204605 | 52 | 68 | 3.0 | 14.0 | 0.00 | 0.12 | 0.08 | 70 | 1012.4 |
| 20260505204405 | 52 | 76 | 3.0 | 12.0 | 0.00 | 0.12 | 0.08 | 70 | 1012.5 |
| 20260505204304 | 52 | 75 | 3.0 | 12.0 | 0.00 | 0.12 | 0.08 | 70 | 1012.5 |
| 20260505204204 | 52 | 74 | 3.0 | 12.0 | 0.00 | 0.12 | 0.08 | 69 | 1012.6 |
| 20260505204105 | 52 | 71 | 4.0 | 12.0 | 0.00 | 0.12 | 0.08 | 70 | 1012.6 |
| 20260505204005 | 52 | 71 | 4.0 | 12.0 | 0.00 | 0.12 | 0.08 | 70 | 1012.6 |
| 20260505203805 | 51 | 69 | 4.0 | 12.0 | 0.00 | 0.12 | 0.08 | 70 | 1012.6 |
| 20260505203604 | 51 | 72 | 4.0 | 12.0 | 0.00 | 0.12 | 0.08 | 71 | 1012.6 |
| 20260505203504 | 51 | 70 | 4.0 | 12.0 | 0.00 | 0.12 | 0.08 | 71 | 1012.6 |
| 20260505203305 | 51 | 70 | 4.0 | 15.0 | 0.00 | 0.12 | 0.08 | 71 | 1012.6 |
| 20260505203205 | 51 | 70 | 5.0 | 15.0 | 0.00 | 0.12 | 0.08 | 70 | 1012.6 |
| 20260505203005 | 51 | 74 | 5.0 | 15.0 | 0.00 | 0.12 | 0.08 | 70 | 1012.6 |
| 20260505202904 | 51 | 75 | 5.0 | 15.0 | 0.00 | 0.12 | 0.08 | 70 | 1012.7 |
| 20260505202804 | 51 | 77 | 6.0 | 15.0 | 0.00 | 0.12 | 0.08 | 70 | 1012.7 |
| 20260505202704 | 51 | 78 | 6.0 | 15.0 | 0.00 | 0.12 | 0.08 | 70 | 1012.8 |
| 20260505202505 | 51 | 79 | 5.0 | 15.0 | 0.00 | 0.12 | 0.08 | 70 | 1012.8 |
| 20260505202307 | 51 | 74 | 6.0 | 15.0 | 0.00 | 0.12 | 0.08 | 70 | 1012.8 |
| 20260505202205 | 51 | 74 | 6.0 | 15.0 | 0.00 | 0.12 | 0.08 | 70 | 1012.9 |
| 20260505202105 | 51 | 76 | 5.0 | 16.0 | 0.00 | 0.12 | 0.08 | 70 | 1012.9 |
| 20260505202005 | 51 | 75 | 5.0 | 16.0 | 0.00 | 0.12 | 0.08 | 70 | 1012.8 |
| 20260505201905 | 51 | 74 | 5.0 | 16.0 | 0.00 | 0.12 | 0.08 | 70 | 1012.8 |
| 20260505201804 | 51 | 72 | 5.0 | 16.0 | 0.00 | 0.12 | 0.08 | 70 | 1012.8 |
| 20260505201405 | 51 | 76 | 6.0 | 16.0 | 0.00 | 0.12 | 0.08 | 70 | 1012.9 |
| 20260505201305 | 51 | 74 | 6.0 | 16.0 | 0.00 | 0.12 | 0.08 | 70 | 1012.9 |
| 20260505201204 | 51 | 76 | 6.0 | 16.0 | 0.00 | 0.12 | 0.08 | 69 | 1012.8 |
| 20260505201105 | 51 | 74 | 6.0 | 15.0 | 0.00 | 0.12 | 0.08 | 69 | 1012.9 |
| 20260505201004 | 51 | 70 | 6.0 | 16.0 | 0.00 | 0.12 | 0.08 | 69 | 1012.9 |
| 20260505200905 | 51 | 72 | 7.0 | 17.0 | 0.00 | 0.12 | 0.08 | 69 | 1012.9 |
| 20260505200805 | 51 | 74 | 7.0 | 17.0 | 0.00 | 0.12 | 0.08 | 69 | 1012.9 |
| 20260505200704 | 51 | 75 | 7.0 | 17.0 | 0.00 | 0.12 | 0.08 | 69 | 1012.8 |
| 20260505200604 | 51 | 74 | 7.0 | 17.0 | 0.00 | 0.12 | 0.08 | 68 | 1012.8 |
| 20260505200505 | 51 | 75 | 7.0 | 17.0 | 0.00 | 0.12 | 0.08 | 68 | 1012.9 |
| 20260505200305 | 51 | 70 | 7.0 | 17.0 | 0.00 | 0.12 | 0.08 | 69 | 1012.8 |
| 20260505200205 | 51 | 69 | 7.0 | 17.0 | 0.00 | 0.12 | 0.08 | 69 | 1012.9 |
| 20260505200104 | 51 | 70 | 7.0 | 17.0 | 0.00 | 0.12 | 0.08 | 68 | 1012.9 |
| 20260505200005 | 51 | 73 | 7.0 | 20.0 | 0.00 | 0.12 | 0.08 | 68 | 1013.0 |
| 20260505195904 | 51 | 70 | 7.0 | 20.0 | 0.00 | 0.12 | 0.08 | 68 | 1012.8 |
| 20260505195805 | 51 | 68 | 7.0 | 20.0 | 0.00 | 0.12 | 0.08 | 68 | 1012.9 |
| 20260505195605 | 51 | 63 | 7.0 | 20.0 | 0.00 | 0.12 | 0.08 | 68 | 1012.8 |
| 20260505195405 | 51 | 64 | 8.0 | 20.0 | 0.00 | 0.12 | 0.08 | 68 | 1012.7 |
| 20260505195305 | 51 | 63 | 8.0 | 20.0 | 0.00 | 0.12 | 0.08 | 67 | 1012.7 |
| 20260505195204 | 51 | 59 | 8.0 | 20.0 | 0.00 | 0.12 | 0.08 | 67 | 1012.7 |
| 20260505195104 | 51 | 58 | 8.0 | 20.0 | 0.00 | 0.12 | 0.08 | 67 | 1012.7 |
| 20260505195004 | 51 | 54 | 8.0 | 20.0 | 0.00 | 0.12 | 0.08 | 67 | 1012.6 |
| 20260505194905 | 51 | 51 | 9.0 | 20.0 | 0.00 | 0.12 | 0.08 | 67 | 1012.6 |
| 20260505194805 | 51 | 49 | 8.0 | 20.0 | 0.00 | 0.12 | 0.08 | 67 | 1012.7 |
| 20260505194705 | 51 | 51 | 8.0 | 20.0 | 0.00 | 0.12 | 0.08 | 67 | 1012.7 |
| 20260505194605 | 51 | 51 | 8.0 | 20.0 | 0.00 | 0.12 | 0.08 | 67 | 1012.7 |
| 20260505194504 | 51 | 50 | 8.0 | 20.0 | 0.00 | 0.12 | 0.08 | 66 | 1012.7 |
| 20260505194404 | 51 | 51 | 8.0 | 19.0 | 0.00 | 0.12 | 0.08 | 66 | 1012.7 |
| 20260505194304 | 51 | 49 | 8.0 | 19.0 | 0.00 | 0.12 | 0.08 | 66 | 1012.7 |